GFSCGP_con_sbcape_069.txt.gz
CAPE
0 0 0 0 0 0 0 0 0 0 0 0 0 0 0 0 0 0 0 0 61 0 0 0 2 5 0 5 9 8 2 2 1 2 9 0 0 0 5 1 4 12 26 41
0 0 0 0 0 0 0 0 0 0 0 0 0 0 0 0 0 0 0 0 27 1 0 1 1 3 4 3 9 7 4 2 2 1 1 0 1 1 0 0 0 0 40 50
0 0 0 0 0 0 0 0 0 0 0 0 0 0 0 0 0 0 0 0 0 11 0 1 0 3 1 2 2 8 6 1 1 1 0 1 0 0 0 0 0 0 24 63
0 0 0 0 0 0 0 0 0 0 0 0 0 0 0 0 0 0 0 0 0 3 0 0 1 0 0 2 0 10 6 3 6 1 0 1 1 0 0 0 0 0 19 72
0 0 0 0 0 0 0 0 0 0 0 0 0 0 0 0 0 0 0 0 0 0 0 0 0 0 0 0 1 10 10 7 3 2 0 0 5 0 0 0 0 0 0 18
0 0 0 0 0 0 0 0 0 0 0 0 0 0 0 0 0 0 0 0 0 0 0 0 0 0 0 1 1 9 2 2 2 1 0 0 1 1 0 0 0 0 0 4
0 0 0 0 0 0 0 0 0 0 0 0 0 0 0 0 0 0 0 0 0 0 0 0 0 0 0 2 1 2 2 2 5 3 0 0 0 0 1 0 0 0 0 0
0 0 0 0 0 0 0 0 0 0 0 0 0 0 0 0 0 0 0 0 0 0 0 0 0 0 0 0 3 2 2 1 4 4 2 0 0 0 0 0 0 0 1 5
0 0 0 0 0 0 0 0 0 0 0 0 0 0 0 0 0 0 0 0 0 0 0 0 0 0 0 0 0 2 2 0 0 5 2 0 0 0 0 0 0 0 0 0
0 0 0 0 0 0 0 0 0 0 0 0 0 0 0 0 0 0 0 0 0 0 0 0 0 0 0 0 0 0 0 3 2 2 3 1 0 0 0 0 0 0 0 0
0 0 0 0 0 0 0 0 0 0 0 0 0 0 0 0 0 0 0 0 0 0 0 0 0 0 0 0 0 0 0 0 2 2 3 1 0 0 0 0 0 0 0 0
0 0 0 0 0 0 0 0 0 1 0 0 0 0 0 0 0 0 0 0 0 0 0 0 0 0 0 0 0 0 0 0 0 2 1 2 1 0 0 0 0 0 0 0
3 7 0 0 0 0 0 0 0 0 0 0 2 0 0 0 0 0 0 0 0 0 0 0 0 0 0 0 0 0 0 0 0 0 3 2 2 1 0 0 0 0 1 3
39 24 9 6 2 0 0 0 0 0 0 0 0 0 0 0 0 0 0 0 0 0 0 0 0 0 1 0 0 0 0 0 0 0 0 0 0 0 0 0 0 0 0 0
33 11 12 0 0 0 0 0 0 0 0 0 0 0 0 0 0 0 0 0 0 0 0 0 0 0 0 3 1 0 0 0 0 0 0 0 0 0 0 0 0 0 0 0
0 6 17 0 0 0 0 0 0 0 0 0 0 0 0 0 0 0 0 0 0 0 0 0 0 0 0 0 14 11 2 0 0 0 0 0 0 0 0 0 0 0 0 0
0 22 17 4 0 0 0 0 0 0 0 0 0 0 0 0 0 0 0 0 0 0 0 0 0 0 0 0 0 26 38 4 0 0 0 0 0 0 2 0 0 1 3 7
0 1 9 18 4 0 0 0 0 0 0 0 0 0 0 0 0 0 0 0 0 0 0 0 0 0 0 0 0 8 25 29 1 3 4 2 3 0 1 6 7 7 10 3
0 0 20 43 12 0 0 0 0 0 0 0 0 0 0 0 0 0 0 0 0 0 0 0 0 0 0 0 0 0 0 16 33 42 51 39 36 25 31 42 0 0 0 0
0 0 21 26 8 0 0 0 7 8 0 0 0 0 0 0 0 0 0 0 0 0 0 0 0 0 0 0 0 0 2 6 28 53 71 72 81 66 0 0 0 0 0 0
1 2 9 28 3 0 0 0 84 4 0 0 0 0 0 0 0 0 0 0 0 0 0 0 0 0 0 0 1 50 76 25 0 0 0 0 0 0 1 0 0 0 0 0
0 4 14 5 15 1 0 4 42 0 0 0 0 0 0 0 0 0 0 0 0 0 0 0 0 1 0 1 0 4 6 1 0 0 0 0 0 1 1 0 0 0 0 0
9 1 3 2 0 0 0 2 0 0 0 0 0 0 0 0 0 0 0 0 0 0 0 0 2 1 0 0 0 0 1 0 0 0 0 2 0 0 1 4 5 1 0 0
0 0 0 0 0 0 0 0 0 0 0 0 0 0 0 0 0 0 0 0 0 0 0 0 1 1 1 0 0 0 0 0 0 3 1 1 2 1 2 0 0 0 0 0
0 0 0 0 0 0 0 0 1 0 0 0 0 0 0 0 0 0 0 0 0 0 0 0 2 4 3 2 2 0 0 0 0 0 0 0 0 0 0 0 0 0 0 0
0 0 0 0 1 2 0 0 1 0 0 0 0 0 0 0 0 0 0 0 0 0 0 0 0 0 0 0 0 0 0 0 0 0 0 0 0 0 0 1 1 1 0 0

GFSCGP_con_sbcape_072.txt.gz
CAPE
0 0 0 0 0 0 0 0 0 0 0 0 0 0 0 0 0 0 35 69 191 287 192 129 20 0 1 9 19 23 4 2 8 16 19 9 37 40 56 61 50 81 62 50
0 0 0 0 0 0 0 0 0 0 0 0 0 0 0 0 0 0 0 47 68 305 225 134 16 1 1 7 14 24 6 4 8 5 7 8 12 43 69 21 26 13 76 44
0 0 0 0 0 0 0 0 0 0 0 0 0 0 0 0 0 0 0 3 52 177 342 184 51 5 0 5 12 11 7 12 9 27 43 10 2 2 3 11 21 9 26 75
0 0 0 0 0 0 0 0 0 0 0 0 0 0 0 0 0 0 0 5 57 90 304 236 129 28 0 0 6 11 1 11 9 6 2 15 27 4 16 3 2 10 5 48
0 0 0 0 0 0 0 0 0 0 0 0 0 0 0 0 0 0 0 0 24 91 265 328 178 84 3 0 2 10 6 20 9 6 6 4 18 0 0 4 0 0 11 62
0 0 0 0 0 0 0 0 0 0 0 0 0 0 0 0 0 0 0 0 0 26 107 290 234 114 25 0 1 10 8 10 11 15 10 8 6 8 10 5 19 5 3 13
0 0 0 0 0 0 0 0 0 0 0 0 0 0 0 0 0 0 0 0 0 0 49 188 255 177 56 6 0 2 2 3 13 17 17 10 24 32 10 2 5 2 1 1
0 0 0 0 0 0 0 0 0 0 6 1 0 0 0 0 0 0 0 0 0 0 11 119 208 227 142 31 1 0 0 0 4 12 15 17 22 40 26 13 9 20 6 9
0 0 0 0 2 0 0 0 0 0 1 1 1 0 0 0 0 0 0 0 0 0 0 75 154 232 187 80 20 0 0 0 0 5 13 13 17 25 70 36 16 21 14 25
0 0 0 0 0 3 20 3 1 6 8 10 2 5 1 0 0 0 0 0 0 0 0 25 146 181 184 127 42 0 1 0 0 0 3 2 3 2 4 19 45 62 43 25
0 1 2 3 0 1 5 6 1 7 7 13 14 11 2 0 0 0 0 0 0 0 0 10 66 147 150 132 66 26 22 0 0 0 0 0 0 1 4 54 27 15 29 18
18 10 26 15 0 0 0 4 2 10 17 9 23 14 0 0 0 0 0 0 0 0 0 0 83 173 152 153 108 76 34 11 0 0 10 17 0 0 2 3 29 70 35 38
2 27 2 0 0 1 1 0 0 3 5 10 54 13 4 0 0 0 0 4 9 0 0 0 31 155 221 197 155 123 88 58 12 0 0 14 14 2 5 0 0 1 4 6
13 8 29 34 18 9 11 1 0 0 15 14 16 18 11 0 0 0 0 0 0 0 0 1 0 52 185 274 253 152 120 103 59 26 12 3 12 30 7 0 0 0 0 0
107 10 0 0 0 0 0 0 0 0 0 7 12 21 7 0 0 0 0 0 0 0 0 0 6 6 100 232 279 247 187 129 93 51 46 109 22 2 0 0 1 2 4 0
0 10 19 0 0 0 0 0 0 0 0 1 22 0 1 0 0 0 0 0 0 0 0 0 0 0 0 58 238 222 223 183 123 69 61 61 58 40 14 3 1 4 8 6
0 21 12 0 0 0 0 0 0 0 0 8 16 2 0 0 0 0 0 0 0 0 0 0 0 0 5 5 80 218 293 239 142 107 74 48 52 53 61 27 11 4 8 16
0 37 37 26 6 0 0 0 0 0 0 0 0 0 0 0 6 9 0 0 0 0 0 0 0 0 0 0 1 87 154 239 182 141 120 87 41 56 50 62 56 35 37 36
4 18 48 25 10 0 0 0 0 0 0 0 0 0 12 9 3 22 10 0 0 0 0 0 0 0 0 0 0 9 68 166 228 203 186 146 144 98 90 80 91 90 46 14
12 12 46 50 9 1 0 0 5 2 0 0 0 0 0 0 18 19 0 0 0 0 0 0 0 0 0 0 0 0 1 59 156 285 233 222 190 180 190 177 88 1 0 0
16 33 47 31 38 22 0 0 106 27 31 0 0 0 0 2 28 1 0 0 0 0 0 0 0 3 0 0 0 0 1 15 52 135 218 216 227 241 168 0 0 1 1 0
10 21 32 43 25 18 0 14 29 18 0 0 0 0 0 0 6 23 0 0 0 0 0 0 1 3 4 6 19 49 73 11 1 7 1 0 1 0 0 0 2 3 2 0
57 38 59 15 37 49 62 22 0 0 0 0 0 1 4 45 47 35 3 4 0 0 0 7 4 1 1 3 2 2 4 1 2 1 2 1 0 0 3 0 4 1 2 1
3 6 28 14 0 4 0 0 0 0 0 0 0 0 0 0 55 14 0 0 0 0 0 2 6 2 1 0 2 5 2 0 1 2 1 1 0 1 3 2 1 1 1 1
16 9 0 1 2 3 0 0 2 0 0 0 0 0 0 0 0 0 0 0 0 0 0 0 2 3 1 0 0 1 1 0 0 0 1 1 1 1 1 1 1 0 0 0
9 5 23 14 18 0 0 0 5 2 2 0 0 0 0 0 0 0 0 0 1 0 1 1 1 1 2 0 0 0 0 1 0 0 1 1 1 1 1 1 2 2 1 1

GFSCGP_con_sbcape_075.txt.gz
CAPE
0 0 0 0 0 0 0 0 3 3 0 0 0 0 0 0 0 0 0 9 75 285 340 292 291 84 13 15 7 46 18 23 17 12 10 12 10 12 59 15 19 62 88 132
0 0 0 0 0 0 0 0 0 0 0 0 0 0 0 0 0 0 0 20 31 106 340 355 370 182 15 12 6 24 19 28 17 5 10 8 15 9 35 26 12 19 70 64
0 0 0 0 0 1 1 0 0 0 0 0 0 0 0 0 0 0 0 0 5 36 275 415 409 328 80 2 5 17 19 11 10 23 19 21 22 34 53 53 39 15 52 63
1 0 0 3 1 1 0 0 0 0 0 0 0 0 0 0 0 0 0 0 0 10 56 410 446 358 232 9 2 13 19 17 11 24 10 5 3 5 14 13 1 5 16 71
0 0 13 2 0 0 0 0 0 2 0 0 0 0 0 0 0 0 0 0 0 0 22 414 477 379 283 48 1 8 6 25 10 19 21 4 6 4 16 5 11 3 2 30
0 0 10 3 0 0 0 0 0 0 1 1 0 0 0 0 0 1 0 0 0 2 2 220 459 435 327 114 4 4 9 16 18 6 34 29 97 26 14 10 4 4 1 7
0 0 0 2 2 0 1 4 6 5 12 0 0 0 0 0 0 0 0 0 0 0 0 84 437 473 383 215 35 2 4 22 11 20 29 42 57 59 14 29 10 7 0 2
0 0 0 0 3 0 5 6 10 6 34 21 5 0 0 0 0 0 0 0 0 0 0 4 259 509 426 326 99 4 1 17 35 13 27 21 19 18 36 16 9 44 12 8
0 7 2 0 1 0 0 4 0 0 6 9 9 0 2 0 0 0 0 0 0 1 10 19 107 406 474 391 245 55 7 14 29 53 109 47 104 85 39 37 58 23 20 18
1 3 3 8 2 2 0 0 3 5 10 19 9 11 36 4 0 0 1 1 6 6 10 0 124 290 419 464 358 174 20 16 28 45 75 104 117 163 216 181 163 80 59 30
0 18 7 5 0 15 6 0 1 16 13 23 32 33 7 9 1 0 12 0 7 11 0 0 140 268 425 447 439 283 91 25 33 97 52 78 150 181 341 339 340 271 191 82
8 83 46 0 0 1 4 1 12 62 19 39 31 28 0 4 0 0 0 0 5 2 7 0 33 172 405 431 431 401 195 99 62 192 225 243 187 101 220 350 473 423 324 213
0 28 54 10 27 21 21 24 27 37 32 9 61 28 12 0 0 0 0 0 0 6 34 41 21 126 347 413 405 386 373 261 315 49 103 350 355 239 201 256 329 330 442 306
0 28 51 16 20 14 24 40 40 32 60 34 21 21 2 1 5 0 0 0 0 0 0 4 24 29 220 427 417 406 692 724 485 124 74 119 391 344 272 192 167 221 254 280
35 39 41 48 7 0 36 82 81 94 81 39 51 42 47 38 19 17 1 0 0 0 0 0 13 28 46 265 508 486 499 697 572 372 301 325 454 316 188 214 171 147 180 196
17 2 1 2 3 0 0 0 5 17 26 36 27 28 66 39 11 0 0 0 0 0 0 0 0 5 17 20 297 470 555 840 748 717 689 456 379 340 350 326 281 189 151 122
0 1 5 4 0 5 2 0 0 1 6 8 43 89 2 16 0 0 0 0 0 0 0 0 0 1 3 10 18 73 432 498 725 739 698 630 651 601 572 348 203 206 192 172
10 6 18 20 5 3 0 0 0 0 1 10 8 16 3 0 0 0 1 3 0 0 0 0 0 0 0 0 0 5 25 293 683 710 627 593 644 634 511 513 418 349 291 235
15 13 54 45 32 6 0 0 0 0 0 6 0 5 19 9 0 31 73 0 0 0 0 0 0 0 27 6 0 0 0 53 319 682 600 525 573 546 528 556 586 492 394 330
22 22 72 44 27 20 4 25 0 7 56 26 16 21 16 1 4 29 2 0 0 0 0 0 0 0 9 11 23 38 2 2 118 568 647 543 511 544 476 594 598 478 334 189
40 69 51 43 48 43 44 43 25 64 80 16 4 18 23 16 18 5 0 3 1 3 1 0 1 1 3 4 7 4 95 13 5 43 408 555 485 477 324 368 581 484 6 0
62 47 41 56 57 31 0 49 75 122 67 20 18 9 1 0 0 4 5 18 20 5 0 0 0 2 1 0 4 3 57 2 23 48 140 272 207 74 236 243 0 1 0 0
82 24 56 21 36 88 172 147 27 14 6 5 1 0 0 0 0 5 67 62 0 0 0 0 0 0 0 1 1 5 6 2 3 0 1 1 0 1 1 1 0 0 0 3
78 15 70 20 118 42 104 20 51 3 1 5 3 0 0 0 0 0 0 3 0 0 0 0 0 0 0 1 1 2 3 2 2 3 3 1 1 0 0 1 1 1 3 2
32 15 30 14 8 10 21 30 7 0 1 7 2 3 0 0 0 0 0 0 0 0 0 0 1 0 0 3 2 3 3 1 2 3 5 4 2 1 1 2 2 1 0 0
52 33 51 50 71 112 73 1 4 0 7 8 3 1 0 0 0 0 1 1 0 1 2 1 1 1 2 1 3 3 2 1 0 1 3 1 1 3 1 1 2 4 2 1

GFSCGP_con_sbcape_078.txt.gz
CAPE
0 0 0 0 0 0 0 0 0 0 0 0 1 0 0 0 0 10 0 0 13 69 101 160 132 81 15 101 94 8 5 3 6 4 5 4 5 4 11 12 3 3 2 23
0 0 0 0 0 0 0 0 0 0 0 0 0 0 0 0 0 0 1 3 2 35 77 232 215 102 5 24 34 7 12 6 5 5 4 3 4 5 2 5 0 0 14 30
3 0 0 0 0 0 1 1 0 0 0 0 1 0 0 0 0 0 0 0 0 29 45 220 332 258 0 12 0 4 14 17 5 6 11 3 4 8 12 13 3 1 8 39
9 4 0 0 0 0 14 2 0 1 2 7 5 0 0 0 0 0 0 0 0 0 31 213 386 348 72 5 0 0 4 8 11 10 4 6 2 3 6 0 3 0 3 17
0 0 0 0 1 0 1 0 2 0 5 6 0 0 0 0 0 0 0 0 0 0 1 107 391 385 279 42 13 0 0 2 10 12 6 11 6 3 0 9 15 0 0 16
1 1 0 0 1 6 0 5 2 0 11 12 0 0 0 0 0 0 3 1 0 0 0 23 422 405 295 80 4 0 0 9 4 10 10 7 16 7 3 5 1 0 0 0
0 1 0 10 2 0 3 1 0 3 14 6 0 0 0 0 0 2 0 0 0 0 0 4 344 361 311 141 1 10 0 5 9 14 13 2 2 4 3 2 1 0 0 0
0 0 0 0 0 0 0 0 7 7 26 0 0 0 0 0 0 0 0 0 0 2 19 2 185 408 383 262 6 0 0 0 2 3 5 2 3 2 5 3 3 0 0 0
0 0 0 0 0 0 0 14 0 0 0 4 9 2 0 0 0 0 0 0 0 0 0 0 23 462 441 366 61 0 0 0 0 2 4 7 17 21 0 3 1 2 0 0
0 0 4 0 0 0 2 5 4 0 3 20 3 54 7 0 0 0 0 5 0 3 43 36 26 519 497 473 261 6 0 0 19 2 0 3 2 11 5 6 3 6 0 0
10 0 0 0 0 14 5 2 0 5 1 2 19 1 73 6 0 27 21 0 6 34 35 8 57 356 600 596 440 186 3 0 3 39 11 0 1 5 3 4 8 6 10 1
10 3 0 0 1 0 12 2 3 5 28 28 7 16 3 0 0 0 0 0 0 0 1 30 37 216 470 602 553 400 192 23 2 11 32 25 29 10 8 28 5 7 8 7
0 0 2 18 14 8 0 0 0 9 12 7 47 5 2 1 5 0 0 0 0 0 0 0 0 93 199 554 557 563 377 199 57 14 47 51 37 49 46 43 55 29 31 1
0 0 9 62 19 0 14 6 0 26 15 20 12 2 1 0 0 2 0 0 0 0 0 0 0 0 178 341 588 548 586 394 202 126 50 60 64 65 52 30 43 118 72 48
1 0 1 0 7 8 2 19 2 3 0 4 4 7 22 1 2 1 0 0 0 0 0 0 0 0 0 25 556 547 562 624 394 237 171 70 92 111 102 70 62 63 59 81
0 14 0 0 0 0 5 0 2 14 23 0 0 0 5 0 0 0 0 0 0 0 0 1 0 2 5 11 1 146 539 580 596 443 370 211 90 84 141 137 93 71 54 61
26 5 2 0 0 0 1 0 0 0 12 13 11 36 65 27 15 3 0 9 1 0 0 0 0 0 2 27 45 0 0 311 591 621 550 440 279 152 136 172 128 116 85 57
8 5 25 24 18 7 0 0 1 2 5 12 51 61 0 0 0 0 3 15 0 0 0 0 0 0 11 23 0 0 11 0 64 607 631 593 512 358 281 198 170 153 123 93
35 11 34 52 23 5 0 1 0 0 0 0 1 5 1 0 0 0 0 1 0 0 0 2 1 0 0 0 0 0 0 21 66 0 552 589 545 453 371 328 294 222 152 117
29 83 61 53 9 5 0 0 23 10 1 40 33 9 1 0 8 6 0 0 0 1 0 0 0 0 0 0 0 0 0 0 0 2 15 116 502 439 388 344 330 277 220 153
40 56 39 46 27 26 5 22 15 51 86 10 8 12 0 0 0 0 0 5 51 0 0 0 0 0 0 0 0 0 0 1 2 1 3 0 44 420 362 318 281 294 216 5
26 41 45 49 28 26 17 6 11 104 42 17 5 4 0 0 0 0 0 65 2 0 0 0 0 0 0 0 0 0 0 0 2 2 1 2 1 0 7 93 0 0 0 0
70 30 39 7 7 56 167 154 55 23 13 6 2 0 0 0 0 0 0 1 0 0 0 0 0 0 0 0 1 2 2 2 0 0 0 1 0 2 7 2 0 0 0 0
58 28 86 65 40 93 23 32 10 0 1 0 0 1 1 0 0 0 0 0 0 0 0 0 0 0 0 0 0 1 2 3 0 0 0 1 1 1 3 4 4 2 0 0
64 73 16 10 0 10 6 3 2 0 0 0 0 0 0 0 0 0 0 0 0 0 0 0 1 3 1 0 0 2 3 2 1 0 1 1 1 2 1 1 1 1 1 0
119 7 6 90 4 8 7 1 0 0 0 0 0 0 0 0 0 1 0 0 0 1 0 1 1 2 2 1 2 3 4 1 1 1 2 2 2 2 1 1 1 8 4 5

GFSCGP_con_sbcape_081.txt.gz
CAPE
0 0 0 0 0 0 0 0 0 0 0 0 0 0 0 0 0 0 0 0 0 0 0 0 0 0 0 0 0 0 2 1 5 2 1 1 2 2 2 0 0 0 6 0
0 0 0 0 0 0 0 0 0 0 0 0 0 0 0 0 0 0 0 0 0 0 0 0 0 0 0 0 0 0 0 6 3 3 2 1 2 4 2 0 0 0 0 0
0 0 0 0 0 0 0 0 0 0 0 0 0 0 0 0 0 0 0 0 0 0 0 0 0 0 0 0 0 0 0 3 3 3 3 2 5 3 10 5 0 0 0 0
0 0 0 0 0 0 0 0 0 11 3 0 0 0 0 0 0 0 0 0 0 0 5 0 0 0 0 0 0 0 0 0 2 4 2 1 3 2 4 1 0 0 0 0
0 0 0 0 0 0 0 0 0 0 14 8 0 0 0 0 0 0 0 0 0 0 0 4 0 0 0 0 0 0 0 3 6 8 6 1 1 1 1 0 0 0 0 0
0 0 0 0 0 0 10 8 0 0 12 17 0 0 0 0 0 0 0 0 0 0 0 35 8 0 0 0 0 0 0 4 2 4 6 2 1 0 2 0 0 0 0 0
0 0 0 0 0 11 1 23 48 10 9 0 0 0 0 0 0 0 0 0 0 0 0 33 26 0 0 0 0 0 0 0 4 3 10 6 0 0 0 1 1 0 0 0
0 0 0 0 0 8 4 6 24 8 1 0 0 0 0 0 0 0 0 0 0 0 0 51 47 25 0 0 0 0 0 0 0 6 4 2 5 0 0 0 0 0 0 0
0 0 0 0 0 0 0 0 0 0 15 3 0 0 0 0 0 0 0 0 0 0 0 100 89 35 0 0 0 0 0 0 0 1 2 2 0 0 0 0 0 0 0 0
0 0 0 0 0 0 0 0 6 7 13 5 0 0 12 0 0 0 0 0 0 0 0 0 135 48 27 0 0 0 0 0 0 0 0 3 0 0 1 0 0 0 0 0
0 0 0 0 0 1 0 0 12 12 1 64 2 2 0 0 0 0 0 0 0 0 0 1 0 89 52 0 0 0 0 0 0 0 0 0 6 7 9 1 1 0 1 0
0 0 0 0 0 0 2 0 4 29 12 1 13 0 16 0 0 0 0 0 0 0 0 0 0 62 46 33 0 0 0 0 0 0 0 0 0 0 1 1 0 3 0 0
0 0 0 0 13 24 0 1 9 10 8 8 1 6 22 5 0 0 0 0 0 0 0 0 0 0 0 56 50 1 0 0 0 0 0 0 0 0 0 0 0 2 1 2
0 0 0 2 69 5 10 6 2 14 34 0 18 0 2 0 0 0 0 0 0 0 0 0 0 0 0 0 0 81 29 4 0 0 0 0 0 0 0 0 0 0 0 0
0 0 0 0 0 5 18 10 16 22 9 4 5 7 15 5 1 0 0 3 0 0 0 0 0 0 0 0 0 0 1 82 22 0 0 0 0 0 0 0 0 0 0 0
9 0 2 0 0 0 0 0 0 0 8 6 0 0 1 0 4 2 1 2 0 0 0 0 0 0 0 0 0 0 0 0 89 53 16 2 0 11 9 4 0 0 8 3
27 5 2 0 0 9 0 0 0 0 33 8 7 25 12 4 1 0 1 0 0 0 0 0 0 0 0 0 0 0 0 0 0 14 126 102 28 4 28 43 32 15 6 11
10 1 1 0 0 0 0 13 0 0 4 2 6 37 0 0 0 0 0 0 0 0 0 0 0 0 0 0 0 0 0 0 0 0 0 0 84 70 13 4 33 45 29 10
9 2 8 7 14 0 0 0 0 0 0 0 0 20 0 0 0 0 0 0 0 0 0 0 0 0 0 0 0 0 0 0 0 0 0 1 0 0 41 29 16 45 38 22
1 0 2 9 45 15 0 0 0 20 4 0 0 0 0 0 0 0 0 0 0 0 0 0 0 0 0 0 0 0 0 0 0 0 0 0 1 2 0 0 94 115 63 40
0 0 0 0 8 13 18 35 31 35 10 0 0 0 0 0 0 0 0 0 0 0 0 0 0 0 0 0 0 0 1 0 2 3 0 0 0 1 1 1 5 57 69 47
0 4 10 8 18 3 14 30 46 10 0 0 0 0 0 0 0 0 0 0 0 0 0 0 0 0 0 0 0 0 0 0 2 2 1 0 0 0 0 3 3 3 0 0
4 0 0 0 0 59 50 55 2 0 0 0 0 0 0 0 0 0 0 0 0 0 0 0 0 0 0 0 0 0 1 1 2 1 1 1 0 0 0 1 2 5 7 3
8 0 21 7 32 18 1 5 1 2 0 0 0 0 0 0 0 0 0 0 0 0 0 0 0 0 0 0 0 1 2 1 2 2 2 0 0 1 0 0 1 1 0 4
28 24 1 8 8 12 12 8 3 0 0 0 0 0 0 0 0 0 0 0 0 0 0 0 0 0 0 0 1 1 2 1 2 2 3 2 0 2 2 1 1 1 2 2
8 10 32 23 14 5 10 3 0 0 0 0 0 0 0 0 0 0 0 0 0 0 0 0 0 1 2 3 3 2 4 2 2 1 2 1 1 1 0 1 1 7 4 5

GFSCGP_con_sbcape_084.txt.gz
CAPE
0 0 0 0 0 0 0 0 0 0 0 0 0 0 0 0 0 0 0 0 0 0 0 0 0 7 0 8 0 0 0 4 1 1 2 3 3 2 1 1 1 0 0 0
0 0 0 0 0 0 0 0 0 0 0 0 0 0 0 0 0 0 0 0 0 0 0 0 0 0 0 0 0 0 1 3 3 0 1 1 3 4 0 0 1 0 0 0
0 0 0 0 0 0 0 0 0 0 0 0 0 0 0 0 0 0 0 0 0 0 0 0 0 0 0 0 0 0 0 5 2 1 2 0 2 2 1 0 0 0 0 0
0 0 0 0 0 0 0 0 0 0 0 0 0 0 0 0 0 0 0 0 0 0 0 0 0 0 0 0 0 0 0 5 6 1 1 1 1 1 0 1 0 0 0 0
0 0 0 0 0 0 0 0 0 0 0 5 0 37 0 0 0 0 0 0 0 0 0 0 0 0 0 0 0 0 1 1 1 10 1 0 2 2 2 0 0 0 0 0
0 0 0 0 0 0 0 0 0 2 15 10 0 4 0 0 0 0 0 0 0 0 0 0 0 0 0 0 0 0 0 0 0 7 3 1 1 1 1 0 0 0 0 0
0 0 0 0 0 0 0 1 20 32 38 0 0 0 0 0 0 0 0 0 0 0 0 0 0 0 0 0 0 0 0 0 0 11 7 2 0 0 0 0 0 0 0 0
0 0 0 0 0 0 0 0 33 29 0 1 0 0 0 0 0 0 0 0 0 0 3 23 0 0 0 0 0 0 0 1 1 3 9 1 1 0 0 0 0 0 0 0
0 0 0 0 0 0 0 1 0 35 16 1 0 0 0 15 0 0 0 0 0 0 16 44 4 0 0 0 0 0 0 0 0 0 6 9 5 3 0 0 0 0 0 0
0 0 0 0 0 0 0 0 25 25 0 9 0 36 52 1 0 0 0 0 0 0 24 37 37 5 0 0 0 0 0 0 0 0 0 6 9 6 1 0 0 0 0 0
0 0 0 0 0 0 0 0 8 14 2 11 22 69 20 0 1 0 0 0 0 0 0 10 93 67 0 0 0 0 0 0 0 0 0 0 1 2 1 0 0 0 0 0
0 0 0 0 0 0 0 4 0 43 35 2 9 0 4 4 10 0 0 0 0 0 0 0 1 3 0 0 0 0 0 0 0 0 0 0 2 2 1 0 0 1 0 0
0 0 0 0 0 0 6 5 5 10 5 4 13 10 1 3 10 0 0 0 0 0 0 0 0 0 0 1 0 0 0 0 0 0 0 0 0 0 0 3 8 5 0 0
0 0 0 3 3 3 3 0 8 35 36 0 0 0 7 31 25 7 2 0 0 0 0 0 0 0 0 0 0 0 0 0 0 0 0 0 0 0 0 0 0 1 1 1
0 0 0 0 0 0 0 7 3 8 28 58 1 6 15 14 23 13 12 4 0 0 0 0 0 0 0 0 0 0 0 0 0 0 0 0 0 0 0 0 0 0 0 0
2 2 0 0 0 0 1 0 42 9 3 8 8 5 12 34 41 39 20 10 5 0 0 0 0 0 0 0 0 0 0 0 0 0 0 0 0 0 0 0 0 0 0 0
12 11 0 0 0 0 0 0 7 3 0 1 10 1 24 27 8 19 11 12 3 0 0 0 0 0 0 0 0 0 0 0 0 0 0 0 0 0 10 0 0 0 0 0
12 19 4 0 0 0 0 0 0 7 3 7 24 10 47 1 2 0 0 0 0 0 0 0 0 0 0 0 0 0 0 0 0 1 1 1 1 0 0 0 2 5 3 0
12 6 1 0 5 0 0 0 0 0 5 0 7 4 0 0 0 0 0 0 0 0 0 0 0 0 0 0 0 0 0 1 1 1 2 1 1 1 1 1 1 2 10 1
7 0 0 0 17 7 0 1 4 5 16 0 0 0 0 0 1 0 0 0 0 0 0 0 0 0 0 0 0 0 0 0 1 2 1 1 1 1 3 4 2 2 3 4
0 0 0 0 1 1 0 18 24 3 0 0 0 0 0 0 0 0 0 0 0 0 0 0 0 0 0 0 0 0 0 0 1 0 1 0 0 0 1 4 5 4 2 1
6 2 0 0 15 5 9 71 53 1 0 0 0 0 0 0 0 0 0 0 0 0 0 0 0 0 0 0 0 0 0 0 1 1 1 1 0 0 0 1 2 2 1 0
2 3 0 0 0 3 1 17 0 0 0 0 0 0 0 0 0 0 0 0 0 0 0 0 0 0 0 0 0 1 1 0 0 1 1 1 1 1 1 2 1 1 1 0
2 6 6 14 9 7 5 1 0 0 0 0 0 0 0 0 0 0 0 0 0 0 0 0 0 0 1 1 1 1 1 0 0 1 2 2 2 1 0 2 1 2 1 1
16 16 7 6 19 19 11 7 4 0 0 0 0 0 0 0 0 0 0 0 0 0 0 0 0 1 1 0 1 0 2 0 0 1 1 2 2 1 0 1 3 3 3 3
13 17 5 8 6 13 17 9 6 0 0 0 0 0 0 0 0 0 0 0 0 0 1 1 1 1 0 1 2 1 3 0 1 2 3 2 3 1 0 0 0 6 5 8

GFSCGP_con_sbcape_087.txt.gz
CAPE
0 0 0 0 0 0 0 0 0 0 0 0 0 0 0 0 0 0 0 0 0 0 0 0 8 24 29 22 11 0 1 0 0 1 1 5 1 2 2 2 1 1 3 0
0 0 0 0 0 0 0 0 0 0 0 0 0 0 0 0 0 0 0 0 0 0 0 0 0 24 25 20 6 0 0 0 0 0 0 0 0 0 1 1 1 2 2 0
0 0 0 0 0 0 0 0 0 0 0 0 0 0 0 0 0 0 0 0 0 0 0 0 8 32 14 9 2 0 0 0 0 0 0 0 0 2 1 1 1 1 1 0
0 0 0 0 0 0 0 0 0 0 0 0 0 0 0 0 0 0 0 0 0 0 0 0 0 1 0 11 5 0 0 0 0 0 0 0 1 1 1 0 0 1 0 0
0 0 0 0 0 0 0 0 0 0 0 0 0 0 0 0 0 0 0 0 0 0 0 0 2 0 0 3 0 0 0 0 0 0 1 1 1 0 0 0 0 1 0 0
0 0 0 0 0 0 0 0 0 0 0 0 0 0 0 0 0 0 0 0 0 0 0 0 0 0 0 0 0 0 0 3 0 0 1 0 1 0 1 0 0 0 0 0
0 0 0 0 0 0 0 0 0 0 4 0 0 0 0 0 0 0 0 0 0 0 0 0 0 0 0 0 0 0 0 0 2 10 5 0 0 0 0 0 0 0 0 0
0 0 0 0 0 0 0 0 0 0 10 5 0 0 0 0 0 0 0 0 0 0 0 0 0 0 0 0 0 0 0 0 0 1 4 0 0 1 0 0 0 0 0 0
0 0 0 0 0 0 0 0 0 0 0 12 0 0 0 6 0 0 0 0 0 0 0 0 0 0 0 0 0 0 0 0 0 0 0 0 1 0 0 0 0 0 0 0
0 0 0 0 0 0 0 0 0 41 3 1 0 0 109 25 3 0 0 0 0 0 0 0 0 0 0 0 0 0 0 0 0 0 0 0 0 0 0 0 0 0 0 0
0 0 0 0 0 0 0 0 0 1 18 39 1 32 66 19 5 3 0 0 0 0 1 21 1 0 0 0 0 0 0 0 0 0 0 0 0 3 2 0 0 0 0 0
0 0 0 0 0 0 0 0 5 11 7 66 2 0 71 0 0 0 0 0 0 0 0 0 0 0 0 0 0 0 0 0 0 0 0 0 0 5 7 1 0 0 0 1
0 0 0 0 0 0 3 15 2 24 13 15 6 0 1 0 0 0 0 0 0 0 0 0 0 0 0 0 0 0 0 0 0 0 0 0 0 0 5 4 1 0 1 1
0 0 0 0 0 3 1 17 7 18 22 19 5 0 29 0 0 4 4 0 0 0 0 0 0 0 0 0 0 1 0 0 0 0 0 0 0 0 0 2 2 0 0 2
0 0 0 0 0 0 0 0 0 1 3 26 4 24 9 7 0 11 24 6 0 0 0 0 0 0 0 0 0 0 0 0 0 0 1 1 0 0 0 2 1 1 0 0
0 0 0 0 0 0 0 0 0 0 3 22 12 15 0 1 26 20 32 15 0 0 0 0 0 0 0 0 0 0 0 0 0 0 3 0 0 0 0 0 0 0 0 0
0 1 0 0 0 0 0 0 0 6 0 0 5 8 8 28 4 16 41 15 1 1 0 0 0 0 0 0 0 0 0 0 0 0 0 0 0 0 0 0 1 0 0 0
0 0 0 1 0 0 0 0 0 0 6 1 0 8 37 0 2 17 39 1 4 2 1 0 0 0 0 0 0 0 0 0 0 0 0 0 0 0 1 1 1 2 3 2
0 0 9 0 0 0 0 0 0 0 0 0 0 0 1 0 0 1 2 1 2 1 1 0 0 0 0 0 0 0 0 0 0 0 0 0 0 0 0 0 1 4 5 4
0 0 4 0 9 0 0 0 1 9 0 0 0 0 0 0 0 4 0 0 0 0 0 0 0 0 0 0 0 0 0 1 1 0 0 0 0 0 0 0 0 2 3 4
0 0 0 0 2 0 0 0 6 9 0 0 0 0 0 0 0 0 0 1 0 0 0 0 0 0 0 0 0 0 0 1 1 0 0 0 0 0 1 1 2 1 1 5
0 0 0 0 0 0 0 7 14 0 0 0 1 0 0 0 0 0 0 0 0 0 0 0 0 0 0 0 0 1 1 0 0 0 0 1 1 2 1 1 1 0 1 1
7 0 9 0 0 3 0 1 0 0 2 3 0 0 0 0 0 0 0 0 0 0 0 0 0 0 0 0 0 0 1 0 0 1 1 0 0 0 0 0 0 0 1 1
0 2 2 4 35 13 7 0 0 0 0 0 0 0 0 0 0 0 0 0 0 0 0 0 1 0 0 0 0 0 1 0 0 1 1 0 0 2 1 1 2 2 2 0
20 7 12 8 11 8 15 11 0 0 0 0 0 0 1 0 1 0 0 0 0 0 0 1 2 3 3 4 4 2 1 0 0 1 2 1 3 0 2 3 2 3 1 3
28 19 8 3 4 5 14 15 7 0 1 0 0 0 0 0 0 0 1 1 1 1 1 1 1 1 2 1 2 2 3 0 0 0 3 2 1 0 0 0 0 6 3 7

GFSCGP_con_sbcape_090.txt.gz
CAPE
0 0 0 0 0 0 0 0 0 0 0 0 0 0 0 0 0 0 0 0 0 0 0 0 0 0 0 0 9 1 0 0 0 1 0 5 2 2 3 1 1 16 6 0
0 0 0 0 0 0 0 0 0 0 0 0 0 0 0 0 0 0 0 0 0 0 0 0 0 0 26 50 16 0 0 0 0 0 0 0 4 1 0 1 3 4 0 0
0 0 0 0 0 0 0 0 0 0 0 0 0 0 0 0 0 0 0 0 0 0 0 0 0 11 84 94 15 0 1 1 0 0 0 0 0 1 1 4 4 1 0 0
0 0 0 0 0 0 0 0 0 0 0 0 0 0 0 0 0 0 0 0 0 0 0 0 0 55 92 111 12 0 0 0 0 0 0 1 0 1 0 0 1 0 2 0
0 0 0 0 0 0 0 0 0 0 0 0 0 0 0 0 0 0 0 0 0 0 0 0 0 42 89 54 1 0 0 0 1 0 0 0 0 0 1 1 1 1 0 1
0 0 0 0 0 0 0 0 0 0 0 0 0 0 0 0 0 0 0 0 0 0 0 0 0 2 49 17 1 0 0 0 0 0 0 0 0 0 1 1 1 1 0 2
0 0 0 0 0 0 0 0 0 0 0 0 0 0 0 0 0 0 0 0 0 0 0 0 0 0 4 7 0 0 0 0 0 0 0 0 0 0 0 0 1 1 1 0
0 0 0 0 0 0 0 0 0 0 0 0 0 0 0 0 0 0 0 0 0 0 0 0 0 0 1 2 0 0 0 0 1 0 0 0 0 0 0 0 0 0 0 0
0 0 0 0 0 0 0 0 0 0 0 0 0 0 0 0 0 0 0 0 0 0 0 0 0 0 0 0 0 0 0 0 0 1 0 0 1 0 0 0 0 0 0 0
0 0 0 0 0 0 0 0 0 1 12 5 0 0 1 0 2 1 0 0 0 0 0 0 0 0 0 0 0 0 0 0 0 0 1 2 2 0 0 0 0 0 0 0
0 0 0 0 0 0 0 0 0 0 0 15 2 0 0 0 1 0 0 2 2 0 38 0 0 0 0 0 0 1 0 0 0 0 0 0 2 0 0 0 0 0 0 0
0 0 0 0 0 0 0 0 0 0 0 13 28 1 1 0 1 0 0 2 5 1 1 0 0 0 0 1 1 2 2 0 1 0 0 0 0 0 2 2 0 0 0 0
0 0 0 1 0 0 0 2 10 10 3 2 2 0 0 2 0 0 0 14 8 3 1 1 0 3 1 1 0 0 0 0 0 0 0 1 0 0 1 5 3 2 0 0
0 0 0 0 0 0 9 20 16 7 2 7 16 0 0 5 1 0 1 34 5 3 2 3 1 2 3 2 2 3 3 3 0 0 1 1 0 0 0 0 3 3 2 1
0 0 0 0 0 0 0 0 0 2 0 7 0 2 0 0 31 12 13 2 0 2 0 1 1 2 3 5 7 7 5 1 5 5 3 1 0 0 0 0 0 0 1 0
0 0 0 0 0 0 0 0 0 0 0 0 4 3 4 5 20 25 36 4 1 2 1 0 0 0 1 2 3 1 0 0 0 0 0 0 0 0 1 0 0 0 0 0
0 0 0 0 0 0 0 0 0 0 0 1 0 0 15 14 13 8 5 4 4 2 2 2 0 0 1 1 1 1 0 0 0 0 0 0 0 0 0 0 0 1 2 1
0 0 0 0 0 0 0 0 0 0 0 0 0 0 16 2 2 4 2 2 6 5 4 3 1 0 0 0 0 0 0 0 0 0 0 0 0 0 0 0 0 0 1 1
0 0 0 0 0 0 0 0 0 0 0 0 0 0 3 0 0 3 5 3 4 3 3 1 0 0 0 0 0 0 0 0 0 0 0 0 0 0 0 0 0 0 1 1
0 0 0 0 0 0 0 0 0 0 0 0 0 0 1 0 4 4 2 3 1 1 0 0 0 0 0 0 0 0 1 0 0 0 0 0 0 0 1 1 1 1 1 3
0 0 1 0 0 0 0 0 0 0 0 0 0 0 0 1 0 5 1 1 0 0 0 0 0 0 0 0 1 1 2 3 0 0 0 0 1 1 2 1 2 2 2 1
0 0 0 0 1 0 0 0 0 3 1 2 1 0 2 1 1 2 2 1 0 0 0 0 0 1 2 2 1 1 1 2 1 1 0 1 1 1 2 2 1 2 2 3
1 1 9 0 0 5 0 0 0 0 1 1 3 1 4 5 3 3 1 0 0 0 0 1 2 1 3 3 2 1 1 0 1 0 1 2 1 0 2 3 0 3 2 2
0 4 2 2 6 18 14 9 2 2 1 2 1 4 8 6 6 4 3 2 0 0 1 1 0 1 3 4 2 3 1 1 1 1 0 0 2 0 0 0 2 2 1 0
6 9 3 4 4 9 8 14 23 11 4 0 0 0 0 0 0 0 1 0 1 1 0 1 1 2 1 0 1 1 0 0 0 1 1 1 1 4 2 3 1 3 2 4
14 9 2 7 7 9 6 9 9 3 3 3 1 0 0 0 0 0 0 0 0 1 1 1 1 1 0 0 0 1 1 0 1 1 1 0 0 0 0 0 1 6 1 2

GFSCGP_con_sbcape_093.txt.gz
CAPE
0 0 0 0 0 0 0 0 0 0 0 0 0 0 0 0 0 0 0 0 0 0 0 0 0 0 0 74 335 365 2 3 0 0 2 6 6 9 30 30 73 15 2 2
0 0 0 0 0 0 0 0 0 0 0 0 0 0 0 0 0 0 0 0 0 0 0 0 0 0 0 32 276 137 1 3 1 0 1 2 2 6 10 13 4 3 1 1
0 0 0 0 0 0 0 0 0 0 0 0 0 0 0 0 0 0 0 0 0 0 0 0 0 0 0 57 223 24 2 1 1 0 1 6 11 12 23 28 33 4 1 1
0 0 0 0 0 0 0 0 0 0 0 0 0 0 0 0 0 0 0 0 0 0 0 0 0 0 30 104 248 24 2 3 2 0 2 4 3 9 8 11 12 2 1 1
0 0 0 0 0 0 0 0 0 0 0 0 0 0 0 0 0 0 0 0 0 0 0 0 0 0 34 176 339 33 4 4 2 0 1 3 4 1 15 6 6 4 7 1
0 0 0 0 1 0 0 0 0 0 0 0 0 0 0 0 0 0 0 0 0 0 0 0 0 0 49 236 329 40 4 3 4 2 2 6 1 0 23 14 2 3 2 2
0 0 0 4 6 0 0 0 0 0 0 0 0 0 0 0 0 0 0 0 0 0 0 0 0 0 92 288 95 40 3 2 2 4 6 3 0 3 13 8 7 6 2 2
0 0 0 0 1 0 0 0 0 0 0 0 0 0 0 0 0 0 0 0 0 0 0 0 0 0 162 335 98 28 7 1 1 4 5 6 4 9 17 8 5 9 2 2
0 0 0 0 0 0 0 0 0 0 0 0 0 0 0 0 0 0 0 0 0 0 0 0 0 0 122 351 208 35 0 1 2 4 5 6 11 9 13 4 3 0 1 2
0 0 0 0 0 0 0 0 0 0 0 0 0 0 0 8 0 0 2 0 1 4 0 4 0 0 87 285 67 8 2 3 2 3 3 6 8 6 8 2 1 0 0 5
0 0 0 0 0 0 0 0 0 0 0 0 0 0 45 22 18 35 30 1 1 5 5 8 12 6 79 166 3 6 3 3 9 3 5 13 10 5 7 2 0 0 1 7
0 0 0 0 0 0 0 0 0 0 0 0 2 1 13 19 14 30 11 7 0 0 12 4 3 60 66 14 3 6 6 3 3 3 3 4 11 2 12 12 7 6 5 4
0 0 71 15 0 0 0 0 1 0 1 0 10 0 25 5 6 32 15 2 2 1 11 4 2 2 3 8 9 8 5 6 4 3 7 7 5 3 2 19 12 5 5 3
0 0 0 0 0 0 0 0 0 0 1 0 2 0 0 0 2 21 2 2 3 14 16 6 7 4 2 2 4 1 2 6 8 5 13 6 1 1 6 8 13 16 13 10
0 0 0 0 0 0 0 0 0 0 0 3 0 0 0 1 12 34 3 2 1 1 14 9 7 3 2 2 2 2 3 3 6 7 6 5 5 6 12 12 6 11 17 15
0 0 0 0 0 0 0 0 0 0 0 0 0 0 0 3 0 17 4 1 5 2 5 3 4 5 5 4 3 4 4 6 2 2 3 1 0 0 0 0 0 0 0 0
0 0 0 0 0 0 0 0 0 0 0 1 0 1 13 0 3 21 8 4 5 5 5 4 2 2 1 6 2 1 1 0 0 1 1 0 0 0 0 0 0 0 0 1
0 0 0 0 0 0 0 0 0 0 0 0 0 6 21 3 3 1 10 2 2 2 1 1 1 1 0 1 2 1 0 0 1 0 0 0 0 0 0 0 0 1 1 3
0 0 0 0 0 0 0 0 0 0 0 3 1 0 6 2 0 5 11 7 5 4 3 2 2 1 0 1 1 1 0 0 0 0 0 0 1 1 1 2 2 2 4 4
0 0 0 0 0 0 0 0 0 2 0 3 2 22 2 0 1 10 7 4 1 1 1 0 1 1 1 1 1 0 1 0 1 1 2 2 1 1 3 5 3 3 2 3
0 1 0 0 0 0 0 0 0 0 0 2 2 0 0 3 6 7 1 4 0 0 0 0 0 2 1 0 2 2 1 1 0 1 2 2 2 2 4 4 4 3 3 2
0 0 0 0 2 0 1 0 10 9 8 7 4 2 4 5 6 5 4 2 0 0 0 0 1 2 2 2 1 3 5 2 1 0 0 1 2 3 4 5 5 4 4 4
9 17 4 15 29 21 14 9 8 5 6 7 5 6 3 3 2 2 2 4 2 0 0 0 0 1 2 1 2 2 4 3 2 2 1 0 1 1 2 3 6 6 3 5
3 7 9 12 22 12 17 14 20 11 4 3 5 10 6 2 3 3 2 2 3 0 1 0 0 0 2 2 1 2 3 2 1 3 4 2 2 2 3 5 9 8 12 12
2 1 2 7 6 19 3 13 9 6 7 4 1 1 0 0 0 0 1 1 1 0 1 1 1 1 1 1 2 1 1 3 2 2 2 3 4 3 4 12 13 16 18 15
4 7 3 7 6 5 5 7 5 2 2 3 1 1 3 3 1 1 2 1 1 1 1 0 1 1 2 1 2 2 3 2 2 2 1 3 3 2 2 3 5 7 8 7

GFSCGP_con_sbcape_096.txt.gz
CAPE
0 0 0 0 0 0 0 0 0 0 0 0 0 0 0 0 0 0 0 0 0 0 0 0 0 0 0 0 213 948 1371 828 303 154 97 53 139 72 132 380 158 192 42 3
0 0 0 0 0 0 0 0 0 0 1 0 0 0 0 0 0 0 0 0 0 0 0 0 0 0 0 0 111 764 1245 431 278 502 515 156 20 45 81 102 64 112 30 2
0 0 0 0 0 0 1 0 0 0 0 0 0 0 0 0 0 0 0 0 0 0 0 0 0 0 0 3 210 577 1099 187 299 704 445 73 15 8 33 68 33 2 2 4
0 0 0 0 0 0 0 0 0 0 0 0 0 0 0 0 0 0 0 0 0 0 0 0 0 0 0 21 225 498 867 5 189 514 436 285 23 5 21 5 35 19 8 3
0 0 0 0 0 0 0 0 0 0 0 0 0 0 0 0 0 0 0 0 0 0 0 0 0 0 0 7 390 580 395 19 48 132 569 293 170 1 24 12 42 38 8 5
54 7 0 0 0 0 0 0 0 1 10 8 0 0 0 0 0 0 0 0 0 0 0 0 0 0 0 6 547 764 52 11 42 165 311 292 65 1 26 15 39 7 5 1
41 16 64 9 17 0 1 31 55 54 36 0 0 0 0 0 0 1 0 1 2 1 0 0 0 0 0 107 714 592 9 13 11 38 97 20 11 4 30 19 25 17 5 4
16 1 106 85 13 7 11 15 62 0 0 1 0 0 4 1 0 7 6 2 9 1 0 0 0 2 0 81 731 337 90 140 29 23 23 1 3 1 30 13 30 23 12 6
5 3 1 92 83 38 43 55 5 0 0 0 0 0 0 0 11 2 5 11 12 1 1 0 1 47 116 51 732 351 137 316 33 18 16 4 6 4 14 22 18 34 26 6
0 24 0 29 99 54 69 23 25 15 11 3 1 0 47 25 29 9 6 11 11 3 0 0 0 37 3 97 678 297 147 111 24 8 7 6 3 2 7 29 23 15 39 12
6 33 11 44 36 52 23 26 23 19 4 5 0 36 86 45 10 18 23 17 6 2 4 0 1 0 23 288 432 114 40 17 20 34 4 10 7 8 10 21 24 12 3 12
83 46 15 42 24 21 20 18 1 13 4 4 0 10 99 0 4 19 15 5 0 1 5 0 5 3 7 76 1 33 38 11 15 4 3 9 7 12 13 14 21 8 2 2
21 83 107 82 75 35 42 28 27 14 0 8 15 82 5 0 8 32 0 1 1 0 2 1 5 10 4 2 8 32 14 11 70 14 13 8 5 12 17 11 39 27 30 20
0 1 27 46 34 27 35 26 23 7 9 13 6 0 0 9 27 35 4 6 4 0 4 1 7 11 7 3 1 1 1 2 5 5 10 10 7 8 12 26 37 21 14 32
1 0 0 0 0 0 0 0 0 0 0 0 0 0 8 50 27 27 8 4 3 5 2 3 6 11 11 6 3 1 2 1 1 3 4 6 10 11 11 40 34 32 32 21
0 0 0 0 0 0 0 0 0 0 0 0 0 7 60 23 0 4 11 8 6 5 6 1 3 3 11 10 5 2 2 3 1 2 4 7 1 0 0 0 0 0 0 0
0 0 0 0 0 0 0 0 0 0 0 1 7 15 39 8 6 11 10 9 10 10 8 2 2 1 8 13 4 5 5 5 4 4 0 1 2 2 2 1 0 1 2 2
0 0 0 0 0 0 0 0 0 1 0 0 12 54 33 4 9 11 10 7 9 6 7 3 0 1 2 5 4 0 0 1 11 8 5 2 1 3 3 1 2 4 4 2
0 0 0 0 0 0 9 0 0 0 3 4 11 11 0 0 0 10 14 9 8 8 11 3 2 0 1 2 2 0 0 0 0 2 1 2 2 1 4 2 4 5 4 1
0 0 0 0 0 0 27 5 0 0 5 7 2 1 4 0 13 12 5 6 6 5 0 0 1 0 0 0 1 1 0 0 1 1 1 2 0 0 1 4 5 4 1 1
6 6 6 0 0 3 13 4 0 10 19 7 1 3 0 1 6 10 4 4 8 0 0 0 0 0 1 1 1 0 1 3 2 0 0 0 1 3 3 5 7 5 4 3
30 28 17 7 5 6 12 2 6 14 11 5 7 7 4 3 5 4 4 3 8 0 0 0 0 0 3 1 1 3 3 3 1 1 1 2 3 3 5 6 7 7 6 6
29 11 25 9 14 24 14 18 13 10 8 17 22 22 11 6 7 8 6 6 8 2 0 0 0 1 1 2 2 4 5 3 1 0 0 1 1 1 2 4 5 6 5 6
10 3 42 44 12 6 23 13 13 9 8 7 14 15 10 6 6 6 6 4 1 0 0 0 0 0 2 3 4 4 4 2 1 2 1 1 1 1 2 5 5 7 9 8
18 9 6 30 27 6 8 12 14 10 9 4 3 5 4 2 1 0 0 0 0 0 0 1 2 2 1 2 4 5 3 3 2 2 1 2 2 2 5 11 11 11 18 8
5 9 18 10 11 8 10 11 10 5 5 3 1 0 1 0 1 0 0 0 0 0 0 1 2 2 4 4 4 5 4 3 4 4 6 8 8 6 4 4 7 7 6 7

GFSCGP_con_sbcape_099.txt.gz
CAPE
0 0 0 0 0 0 0 0 0 0 0 4 10 0 0 0 0 0 0 0 0 0 0 0 0 0 0 0 0 474 1626 2149 1437 984 703 727 757 462 565 449 529 419 461 432
18 0 0 0 0 6 3 0 1 5 0 15 10 4 0 0 0 0 0 0 0 0 0 0 0 0 0 0 0 33 917 1654 1531 799 771 814 652 557 769 498 331 235 405 332
77 0 0 0 1 5 20 0 0 1 0 0 22 4 0 0 0 0 0 0 0 0 0 0 0 0 0 0 0 0 256 1213 1459 1018 1040 984 823 424 482 422 382 389 278 200
121 0 2 0 2 3 14 15 3 0 6 4 4 1 0 0 0 0 0 0 0 0 0 0 0 0 0 0 0 0 107 842 1268 1207 1234 1182 715 502 274 363 71 79 18 4
117 12 24 9 2 2 3 0 0 10 16 12 4 10 0 5 0 0 0 0 6 16 15 11 1 0 0 0 0 96 257 841 949 1281 1382 1223 980 620 283 36 50 4 7 3
39 18 35 0 2 0 0 0 6 12 8 7 0 2 2 0 0 0 16 22 23 27 20 11 7 1 0 0 0 241 575 1269 817 924 1376 1192 1047 682 144 4 77 69 11 4
120 87 43 0 18 6 0 4 16 11 23 5 1 15 3 33 52 18 14 22 26 30 8 1 1 2 0 33 0 156 776 993 572 495 1143 1265 1097 617 122 80 34 14 7 6
93 110 15 0 8 2 9 3 45 23 36 17 2 0 3 78 34 37 17 33 30 36 13 0 0 2 1 66 3 251 961 492 130 294 1116 1160 1007 485 78 29 34 22 7 4
173 1 3 39 10 2 9 19 4 6 5 18 15 80 90 69 99 50 24 26 5 11 6 0 2 1 1 0 110 504 730 112 74 193 1020 1027 818 350 35 33 70 22 23 9
28 7 1 28 87 26 1 0 21 50 23 7 25 7 70 51 39 20 29 32 9 13 1 0 1 0 0 0 72 857 437 348 136 145 377 540 639 80 69 161 74 41 70 10
8 54 0 36 60 36 77 96 63 56 65 69 2 133 102 6 6 23 26 15 8 7 2 2 1 0 0 0 278 863 320 191 80 73 57 158 421 102 52 100 93 10 26 19
29 38 15 5 22 5 52 72 47 62 50 16 38 89 22 0 19 32 19 11 12 6 6 2 0 3 0 1 4 218 121 33 51 6 34 41 59 32 40 60 63 21 30 44
117 78 57 34 53 37 65 28 76 111 39 88 73 135 2 35 40 10 8 3 4 7 5 0 0 3 4 3 4 2 33 7 27 25 22 47 22 6 23 43 72 24 19 22
55 81 45 36 35 25 95 82 76 82 64 56 87 0 116 58 56 8 5 4 5 9 16 8 0 0 9 7 7 6 4 0 5 4 20 58 30 28 15 21 60 58 26 26
15 55 12 27 58 84 101 46 59 62 26 21 3 8 64 11 13 10 7 3 3 4 4 9 6 1 2 7 6 6 4 2 2 1 1 1 17 18 23 9 86 25 32 36
1 2 0 0 2 4 0 0 0 0 0 0 0 67 75 13 12 11 11 9 13 11 8 8 3 4 2 8 6 6 8 6 4 3 2 5 5 2 1 0 1 1 0 0
1 0 0 5 0 0 0 0 0 8 17 17 46 61 77 2 10 15 18 9 9 8 8 10 8 1 5 3 11 5 5 7 5 4 3 3 7 6 3 1 1 1 2 1
5 0 2 0 0 7 11 19 6 37 26 21 15 9 32 4 9 12 11 6 8 8 5 8 4 2 1 5 3 2 10 6 7 6 6 10 7 4 3 2 3 3 3 2
1 5 0 0 7 6 23 27 33 26 11 7 7 20 1 3 0 5 8 10 12 7 4 0 0 1 0 0 4 0 0 2 1 0 3 7 11 6 10 5 7 5 3 2
0 0 5 0 0 10 22 2 16 23 35 9 11 1 1 2 21 4 6 8 17 4 1 0 0 0 1 4 3 1 1 4 5 2 2 1 2 3 3 7 8 5 2 2
5 5 22 5 7 25 8 1 0 22 21 12 6 3 0 0 4 7 9 9 18 0 0 0 0 0 0 0 1 1 4 6 5 0 0 0 0 0 3 3 5 5 6 3
40 32 44 55 15 22 5 0 2 15 18 12 11 8 8 9 9 9 10 9 10 5 0 0 0 0 1 0 1 3 5 5 2 5 3 2 1 1 2 4 3 4 6 5
46 24 22 15 12 13 10 12 11 9 8 24 18 12 10 9 10 9 8 4 2 0 0 0 1 1 1 1 1 2 2 2 4 2 3 3 5 1 3 5 5 5 4 8
25 10 56 22 16 10 8 8 6 11 11 19 7 6 5 5 5 4 4 0 0 0 0 0 0 1 2 3 2 1 2 1 1 2 1 1 3 4 2 4 3 5 10 6
12 12 16 12 13 7 6 9 4 4 4 4 3 3 3 3 2 1 0 0 0 0 0 1 1 1 2 5 6 4 1 2 2 3 3 3 3 1 2 6 8 8 11 5
6 8 22 17 15 12 9 12 6 4 2 1 1 0 0 0 1 1 1 0 1 2 1 2 4 4 4 4 7 7 5 2 3 4 5 8 6 4 2 2 4 6 8 5

GFSCGP_con_sbcape_105.txt.gz
CAPE
0 0 0 0 0 0 0 0 2 0 0 32 64 31 0 0 0 0 0 0 0 0 0 0 0 0 0 0 1653 1825 1468 1056 846 944 863 819 549 219 58 93 352 495 337 304
4 0 0 0 81 1 0 0 0 0 7 97 10 1 0 0 0 0 0 0 0 0 0 0 0 0 0 0 903 1811 1462 962 873 753 945 751 603 288 329 24 71 66 229 136
28 0 0 0 14 43 1 0 0 0 108 95 14 0 0 0 0 0 0 0 0 0 0 0 0 0 0 0 0 1700 1581 1057 888 699 526 161 163 178 156 126 76 14 8 25
19 0 30 4 38 21 0 0 0 0 160 101 8 0 0 0 0 0 0 0 0 0 0 0 0 0 0 0 0 0 1543 1309 912 611 552 287 234 291 212 101 56 38 14 0
2 0 0 0 0 19 3 6 5 2 33 17 2 4 0 4 0 0 0 21 0 0 0 0 0 0 0 0 0 0 0 486 1129 623 612 298 210 162 58 61 218 18 0 0
0 0 0 21 81 13 68 287 255 37 8 0 0 1 0 0 0 0 34 0 0 0 0 0 0 0 0 0 0 0 0 0 331 614 599 426 280 231 73 54 7 0 0 0
0 0 0 0 0 1 138 124 22 32 0 0 0 0 0 0 4 15 1 0 0 0 0 0 0 0 0 0 0 0 0 0 0 648 559 533 381 237 188 52 6 0 0 0
0 0 0 0 0 6 6 21 2 1 0 0 0 0 0 4 6 0 0 0 0 0 0 0 0 0 0 0 0 0 0 0 0 99 755 606 474 227 197 36 0 0 0 0
11 5 0 15 22 1 1 18 22 11 50 49 0 2 70 142 1 0 0 0 0 0 0 0 0 0 0 0 0 0 0 0 0 0 911 615 461 611 22 0 0 0 0 0
7 1 9 43 3 0 0 3 0 0 21 20 44 22 44 1 8 4 0 0 0 0 0 0 0 0 0 0 0 0 0 0 0 162 236 326 268 278 0 0 0 0 0 0
0 3 10 44 97 1 0 2 13 38 9 11 35 16 16 19 16 3 2 1 0 0 0 2 2 2 1 1 1 2 2 0 0 5 0 0 45 53 0 0 0 0 0 0
0 0 4 0 0 3 17 6 16 17 11 9 16 3 41 18 3 1 2 2 0 0 0 0 1 4 3 2 2 2 3 1 1 1 0 0 1 0 0 0 0 0 0 0
0 19 8 18 1 4 14 3 3 10 6 14 0 5 19 11 9 5 4 1 1 1 1 3 1 2 5 4 3 1 3 4 3 4 5 3 1 0 2 0 13 2 0 1
7 31 18 16 33 18 28 30 14 9 2 4 22 20 13 12 12 11 4 4 4 3 4 5 4 4 3 5 6 3 2 4 3 5 3 2 0 3 0 1 17 39 3 1
0 1 2 8 4 0 7 7 4 1 15 7 13 21 20 15 16 13 7 7 6 6 5 5 5 4 4 4 3 6 2 2 4 4 2 4 4 2 2 1 5 30 38 6
0 3 5 3 1 1 3 0 0 1 19 36 16 33 12 15 12 9 9 6 7 7 6 4 4 6 5 6 5 2 4 1 1 3 3 4 6 4 3 3 0 2 2 0
0 0 0 4 0 7 1 4 3 5 4 2 14 25 5 8 9 9 8 7 4 2 3 3 3 6 6 5 5 3 2 3 0 1 4 5 5 9 4 3 1 1 6 2
0 0 0 0 0 5 7 1 2 6 6 4 7 2 4 6 7 7 13 13 15 12 0 0 0 2 4 4 3 3 3 1 2 0 0 4 6 4 4 5 11 3 4 4
0 0 0 4 1 1 0 0 1 13 17 11 6 3 2 3 0 2 6 12 14 1 0 0 0 0 2 0 4 2 1 2 0 2 0 1 2 3 3 3 9 12 1 2
10 0 0 0 1 1 0 0 0 0 5 16 5 3 0 0 1 2 7 5 8 3 0 0 0 0 0 1 2 4 2 1 2 3 3 1 1 0 0 0 1 5 2 2
0 0 0 0 1 1 2 0 0 0 7 35 8 3 0 1 3 4 3 1 4 0 0 0 0 0 0 0 0 1 2 2 3 5 4 2 2 1 0 0 0 0 0 0
0 0 0 0 0 0 0 0 0 13 19 29 20 8 3 3 2 0 0 0 0 0 0 0 0 0 0 0 1 0 1 4 0 2 2 1 3 2 2 0 1 0 1 2
0 1 0 4 5 9 9 12 15 12 16 22 16 0 0 0 0 0 0 0 0 0 0 0 0 0 0 0 0 1 1 0 0 0 0 0 1 2 1 0 0 0 0 1
5 5 0 0 11 4 8 13 8 23 4 1 0 9 2 0 0 0 1 0 0 0 0 0 0 1 2 1 0 1 1 2 0 0 0 0 0 0 0 1 0 1 1 0
0 2 0 6 4 1 3 5 6 0 1 1 0 0 0 0 0 0 0 0 0 0 0 0 1 2 2 0 2 1 1 0 2 0 2 0 0 0 2 3 1 3 2 1
0 2 0 1 7 0 3 6 0 1 0 0 0 0 0 0 0 0 0 0 0 0 0 0 3 1 1 0 1 1 1 0 0 1 1 0 1 0 0 0 0 7 2 5

GFSCGP_con_sbcape_108.txt.gz
CAPE
0 0 0 0 0 48 0 0 0 0 0 0 0 0 0 0 0 0 0 0 0 0 0 0 0 0 0 0 872 1415 1472 1277 1199 962 805 570 570 169 334 344 259 121 293 77
0 0 0 4 5 0 1 46 0 0 0 0 8 16 3 0 0 0 0 0 0 0 0 0 0 0 0 0 488 1295 1416 1115 1205 1423 1272 1031 718 316 168 155 322 212 132 140
0 0 0 11 3 0 0 0 5 0 0 0 59 6 0 0 0 0 0 0 0 0 0 0 0 0 0 0 0 1322 1294 1047 1189 1296 942 226 81 74 90 12 60 150 153 79
0 0 0 5 0 7 0 1 8 9 0 0 89 0 6 0 0 0 0 0 1 0 0 0 0 0 0 0 0 0 828 1090 913 655 914 546 677 535 489 357 20 8 39 27
0 0 0 2 11 21 0 0 0 11 0 2 27 47 0 29 61 29 3 0 0 0 0 0 0 0 0 0 0 0 0 0 0 465 634 441 716 553 18 33 38 3 0 0
0 0 0 0 0 5 16 31 46 20 6 0 0 28 0 97 49 261 0 0 0 0 0 0 0 0 0 0 0 0 0 0 0 1 554 594 394 87 42 5 5 7 4 0
0 0 0 0 0 0 1 22 5 2 15 0 0 25 0 261 327 30 0 0 0 0 0 0 0 0 0 0 0 0 0 0 0 0 0 571 278 65 77 36 12 6 0 0
0 0 0 0 0 0 0 0 1 16 10 0 15 9 34 6 11 4 0 0 0 0 0 0 0 0 0 0 0 0 0 0 0 0 0 214 542 136 66 68 33 0 0 0
2 0 0 0 0 0 0 0 7 48 0 2 1 53 12 2 5 13 6 2 3 2 2 1 1 0 0 0 0 0 0 0 0 0 0 0 745 186 174 56 12 0 0 0
9 0 0 28 0 0 0 1 6 0 8 19 37 29 11 12 11 7 14 5 4 3 1 1 1 2 0 0 0 0 0 0 0 0 0 0 651 231 68 3 0 0 0 0
14 2 4 16 4 3 0 0 29 30 31 4 6 11 28 10 16 4 4 13 4 2 1 1 1 1 1 2 2 2 1 1 2 2 2 24 21 1 0 0 0 0 0 0
4 4 2 1 11 0 12 23 31 6 10 14 42 1 8 15 14 7 8 8 4 2 2 1 1 1 1 2 4 4 3 3 4 3 1 0 0 0 0 0 0 0 0 0
6 7 1 12 0 1 12 17 14 20 2 16 5 2 11 23 13 10 7 6 4 3 3 3 2 2 3 3 3 4 5 5 4 2 2 2 2 0 0 0 0 0 0 0
2 7 6 5 4 0 18 46 16 15 8 6 20 21 17 14 13 11 10 7 4 3 3 2 2 3 3 4 3 3 5 7 3 3 4 4 3 3 3 0 0 0 0 0
1 3 4 19 10 13 14 8 8 13 4 2 15 12 15 17 12 15 9 3 2 2 2 5 5 4 4 4 4 2 2 5 3 2 2 4 4 3 3 5 1 1 1 1
0 1 0 7 15 13 9 5 6 10 12 25 13 12 20 21 8 7 6 3 3 1 2 3 5 5 5 6 4 3 2 2 5 3 2 3 3 3 5 4 3 1 0 0
0 0 4 9 8 3 0 9 6 6 8 7 12 15 9 5 5 8 9 10 6 2 3 1 4 7 7 6 6 4 4 1 1 3 4 2 2 3 4 7 4 2 2 6
1 0 0 0 0 0 11 10 7 7 7 3 9 6 2 1 5 5 8 11 10 0 0 0 0 3 4 3 4 3 3 2 1 1 2 3 2 1 2 1 1 0 1 2
0 0 0 6 2 8 1 0 5 12 15 9 5 5 3 3 0 1 5 7 8 0 0 0 0 0 2 0 4 2 3 0 0 0 1 2 3 1 0 1 0 0 0 0
0 0 3 0 0 1 1 0 0 0 3 16 2 1 0 5 1 1 3 5 0 0 0 0 0 0 0 2 1 4 2 0 0 2 1 1 1 1 1 1 0 0 0 0
0 0 0 0 1 1 3 0 0 0 2 30 5 3 0 0 1 2 0 0 0 0 0 0 0 0 0 0 0 2 0 0 0 2 1 2 1 1 1 2 0 1 2 1
0 1 0 0 0 0 1 0 0 16 22 23 8 3 2 0 0 0 0 0 0 0 0 0 0 0 0 0 0 1 1 0 0 0 0 0 1 2 2 0 1 1 1 0
0 0 0 4 3 8 19 24 28 25 19 11 2 0 0 0 0 0 0 0 0 0 0 0 0 0 0 1 1 1 3 0 0 0 0 0 0 1 0 0 0 0 0 0
22 0 0 0 8 6 13 15 8 2 0 0 0 7 6 5 5 0 0 0 0 0 0 0 0 0 1 0 1 2 2 1 1 0 0 0 0 0 0 0 0 0 0 0
0 0 0 3 5 4 3 3 0 0 0 0 0 0 0 0 0 0 0 0 0 0 0 0 0 1 0 0 0 0 1 0 0 1 1 0 0 0 1 2 1 2 0 1
3 4 2 0 2 0 2 1 1 0 0 0 0 0 0 0 0 0 0 0 0 0 0 0 0 0 0 0 0 0 0 0 0 1 1 0 0 0 0 0 0 3 2 4

GFSCGP_con_sbcape_111.txt.gz
CAPE
0 0 0 0 0 0 0 0 0 0 0 0 0 0 0 0 0 0 0 0 0 0 0 0 0 0 0 0 954 1684 1654 1415 1363 961 967 699 881 582 387 324 315 268 137 0
0 0 0 0 0 0 0 0 0 0 0 0 1 0 0 0 0 0 0 0 0 0 0 0 0 0 0 0 0 498 1525 1343 1458 1244 1126 1096 1071 466 549 325 181 288 246 60
0 0 0 0 0 0 0 0 0 0 0 20 64 0 0 0 0 0 0 0 0 0 0 0 0 0 0 0 0 111 1136 1213 1382 1353 1056 405 138 57 18 253 379 214 182 182
0 0 0 0 0 0 0 0 0 0 0 0 1 0 0 0 0 0 0 0 0 0 0 0 0 0 0 0 0 0 238 1257 1212 1164 1126 814 1003 834 606 482 503 490 140 56
0 0 0 0 0 0 0 3 0 0 0 0 0 9 0 56 107 49 0 0 0 0 0 0 0 0 0 0 0 0 0 0 0 473 1123 884 949 845 192 176 60 149 108 60
0 0 0 0 0 0 0 2 3 0 0 0 0 0 0 1 92 0 1 0 0 0 0 0 0 0 0 0 0 0 0 0 0 0 0 786 780 575 218 123 32 43 41 81
0 0 0 0 0 0 0 3 0 6 1 0 0 0 0 2 7 6 9 1 4 2 2 0 0 0 0 0 0 0 0 0 0 0 0 0 599 370 344 244 247 67 44 12
1 0 0 0 0 0 0 0 0 0 10 0 25 3 5 14 10 12 6 11 5 3 5 3 1 1 0 0 0 0 0 0 0 0 0 0 0 558 177 98 125 75 63 47
6 0 0 0 0 0 0 0 0 2 10 2 23 49 14 21 19 5 13 14 10 9 7 3 3 2 2 2 2 1 0 0 0 0 0 1 0 67 493 104 14 44 38 17
22 4 0 6 0 0 0 0 2 3 0 1 1 6 10 5 20 10 1 16 10 6 7 3 3 3 2 1 2 0 1 1 0 0 0 2 0 0 659 310 31 0 7 0
15 4 0 0 5 0 0 0 1 7 0 4 0 4 25 14 13 18 9 3 8 4 3 4 3 2 1 2 1 1 2 2 1 2 2 2 1 2 464 256 28 1 0 0
5 28 0 0 0 0 0 0 15 0 0 14 1 2 5 27 28 19 17 3 5 4 2 1 0 1 1 2 2 2 2 4 3 3 3 3 3 1 2 6 0 0 0 0
11 15 5 0 0 0 2 0 21 23 4 1 0 2 17 26 25 22 17 2 1 2 2 2 1 2 2 2 3 3 4 4 5 3 3 4 3 2 2 4 0 0 0 1
9 14 11 3 4 19 13 20 11 8 13 0 4 10 15 19 14 16 8 4 0 1 3 4 3 3 3 2 3 3 4 3 5 5 4 3 4 8 4 3 4 1 0 1
2 2 19 21 27 4 10 6 19 6 5 1 6 7 9 11 8 20 4 3 2 3 2 5 4 4 3 4 2 1 2 3 2 3 5 5 5 3 2 2 1 1 2 1
5 0 0 6 0 2 1 3 2 11 8 7 2 5 9 16 9 7 8 4 4 1 2 2 4 3 5 6 3 2 3 3 3 1 2 5 4 3 1 2 1 1 3 2
3 5 4 0 16 8 0 4 2 2 4 7 3 10 6 4 4 7 7 6 3 3 3 2 7 8 6 7 4 4 4 3 2 2 2 2 5 4 3 1 1 1 2 1
0 0 12 1 1 0 8 5 19 2 3 6 2 3 1 1 3 5 10 8 1 2 1 3 5 5 6 3 5 2 2 4 3 2 2 3 1 3 3 2 1 0 0 0
0 0 3 4 0 7 4 3 4 8 8 6 6 1 1 2 0 0 11 10 0 0 0 0 2 2 1 2 5 0 2 3 2 2 2 3 3 2 1 2 2 1 0 0
0 0 5 5 0 0 3 1 0 0 7 7 3 2 3 3 0 0 7 1 2 0 0 0 0 0 0 0 0 0 0 0 1 2 2 1 2 1 2 1 1 1 1 1
0 0 1 4 1 3 3 3 0 1 3 14 1 1 0 0 1 7 0 0 0 0 0 0 0 1 2 0 0 1 0 0 0 0 0 0 1 1 0 1 1 1 0 0
1 3 3 0 0 0 0 0 0 9 22 5 2 0 0 2 0 0 0 0 0 0 0 0 0 0 0 0 0 2 6 0 0 0 0 0 0 0 0 0 0 0 0 0
0 0 0 5 2 14 33 20 13 6 2 23 0 0 0 0 0 0 0 0 0 0 0 0 0 0 0 0 1 1 3 3 0 0 0 0 0 0 0 0 0 0 0 0
2 0 0 0 11 6 6 0 3 3 0 0 1 5 3 0 0 0 0 0 0 0 0 0 0 0 0 0 0 2 0 0 0 0 0 0 0 0 0 0 0 0 0 0
2 0 0 4 6 1 1 0 0 0 0 0 0 0 0 0 0 0 0 0 0 0 0 0 0 0 0 0 0 0 1 0 0 0 3 0 0 0 0 1 1 2 1 4
3 5 1 0 0 0 0 0 0 0 0 0 0 0 0 0 0 0 1 0 0 0 0 0 0 0 0 0 0 0 0 0 0 1 1 1 0 0 0 0 0 2 2 4

GFSCGP_con_sbcape_114.txt.gz
CAPE
0 0 0 0 0 0 0 0 0 0 0 0 0 0 0 0 0 0 0 0 0 0 0 0 0 0 0 1 1099 1754 1749 1558 1354 1408 1137 774 800 527 422 369 322 145 94 0
0 0 0 0 0 0 0 0 0 0 0 0 0 0 0 0 0 0 0 0 0 0 0 0 0 0 0 0 0 211 1667 1443 1541 1523 1294 1043 1070 858 740 542 353 273 103 19
0 0 0 0 0 0 0 0 0 0 0 0 0 0 0 0 0 0 0 0 0 0 0 0 0 0 0 0 0 0 868 1389 1481 1458 1193 335 377 264 575 539 423 341 164 45
0 0 0 0 0 0 0 0 0 0 0 0 0 0 0 0 0 0 0 0 0 0 0 0 0 0 0 0 0 0 6 542 1299 1468 1362 1124 1182 1028 1006 996 748 469 151 222
0 0 0 0 0 0 0 0 0 0 0 0 0 4 0 0 0 5 10 5 1 0 0 0 0 0 0 0 0 0 0 0 0 0 1511 1293 1185 945 405 455 641 634 350 248
0 0 0 0 0 0 0 0 0 0 0 0 0 0 0 152 91 12 15 12 12 2 1 1 0 0 0 0 0 0 0 0 0 0 0 606 1307 977 429 412 534 489 371 172
0 0 0 0 0 0 0 0 0 0 0 0 0 0 0 29 18 14 16 15 10 11 6 2 2 2 0 0 0 0 0 0 0 0 0 0 0 946 640 475 509 458 397 207
6 0 0 0 0 0 0 0 0 0 0 16 0 6 23 37 27 19 23 20 14 12 13 11 4 2 2 1 1 0 0 0 0 0 0 0 0 0 519 374 398 211 271 218
7 0 0 0 0 0 0 0 0 6 0 1 37 10 8 10 11 15 9 23 20 15 17 12 8 7 4 3 2 2 0 0 0 0 1 1 1 0 0 379 145 80 52 58
4 13 0 0 0 0 0 0 0 4 0 0 1 2 7 1 11 7 7 6 19 22 14 9 9 8 7 5 5 5 2 1 0 0 2 2 2 2 0 0 128 105 40 5
0 16 0 0 0 0 0 0 0 4 0 0 0 2 37 11 7 9 6 9 10 27 19 8 5 3 3 6 5 6 3 1 2 1 2 3 2 2 1 0 410 124 30 1
0 41 0 0 0 0 1 0 13 24 0 2 1 2 8 26 23 25 10 6 6 13 13 1 3 3 0 1 3 3 3 2 3 4 3 4 3 2 2 0 1 81 25 1
15 5 3 0 0 0 0 2 11 15 12 0 0 2 41 28 20 19 5 6 5 6 2 1 0 2 2 2 2 2 3 4 4 4 4 4 4 3 3 2 2 1 4 5
8 63 40 4 13 22 6 7 13 27 1 1 2 6 6 6 9 11 2 4 3 2 6 3 1 3 2 2 2 2 3 3 4 4 5 5 5 5 4 3 2 1 0 3
14 13 6 2 4 2 5 4 3 1 1 0 3 3 7 7 9 11 7 3 3 5 4 7 7 5 5 2 2 3 3 2 2 3 3 5 5 5 3 4 4 1 1 1
3 0 2 3 10 17 0 2 3 7 5 4 2 2 8 8 7 5 7 2 4 4 4 6 8 8 7 6 2 4 4 3 2 1 2 3 2 2 3 3 3 2 1 0
7 11 4 1 0 0 0 1 1 1 4 6 1 6 6 4 3 5 6 3 3 5 3 6 6 8 9 9 3 4 4 3 3 2 1 2 3 2 2 2 2 2 2 1
2 12 14 4 2 0 0 1 2 1 3 6 1 2 2 2 5 6 6 3 2 3 2 3 5 3 3 6 0 0 3 3 3 4 3 2 2 2 2 2 2 2 1 0
0 8 10 3 1 2 0 0 4 7 4 4 8 6 2 2 0 2 9 2 2 0 1 1 3 3 0 1 1 0 0 0 1 2 3 4 1 2 1 2 2 1 1 1
0 0 7 0 0 0 1 0 2 0 2 2 1 1 1 1 0 2 1 0 0 0 0 0 0 0 2 1 3 0 0 0 0 1 1 1 3 3 2 1 1 1 1 1
0 0 2 3 1 1 2 4 1 1 1 2 0 0 0 1 1 1 0 0 0 0 0 0 0 1 2 1 1 5 3 0 0 0 0 0 0 0 0 0 1 0 0 0
0 1 1 6 0 0 7 2 0 13 4 1 0 0 2 1 0 0 0 0 0 0 0 0 0 0 0 0 0 1 2 3 0 0 0 0 0 0 0 0 0 0 0 0
1 0 3 4 1 12 12 7 3 0 9 2 0 0 0 0 0 0 0 0 0 0 0 0 0 0 0 0 2 2 3 1 0 0 0 0 0 1 0 0 0 0 0 0
7 0 0 0 6 6 2 0 1 0 0 0 0 0 0 0 0 0 0 0 0 0 0 0 0 0 0 0 0 1 1 0 1 0 0 0 0 0 0 0 3 2 1 0
1 0 1 2 3 3 3 0 0 0 0 0 0 0 0 0 0 0 0 0 0 0 0 0 0 0 0 0 0 0 0 0 1 1 0 0 0 0 0 0 2 2 1 6
4 3 1 0 0 0 2 0 0 0 0 0 0 0 0 0 0 0 1 0 0 0 0 0 0 0 0 0 0 0 0 0 1 2 1 0 1 0 0 0 0 1 2 2

GFSCGP_con_sbcape_117.txt.gz
CAPE
0 0 0 0 0 0 0 0 0 0 0 0 0 0 0 0 0 0 0 0 0 0 0 0 0 0 0 0 675 1890 1947 1598 1344 1400 1092 755 647 605 601 963 985 720 590 646
0 0 0 0 0 0 0 0 0 0 0 0 0 0 0 0 0 0 0 0 0 0 0 0 0 0 0 0 0 1827 2101 1985 1485 1526 1367 1384 1188 996 803 749 735 835 918 537
0 0 0 0 0 0 0 0 0 0 0 0 0 0 0 0 0 0 0 0 0 0 0 0 0 0 0 0 0 0 1405 2259 2004 1790 1593 1418 1350 1344 1130 943 835 645 1029 751
0 0 0 0 0 0 0 0 0 0 0 0 0 3 0 0 2 7 5 4 2 3 2 1 0 1 0 0 0 0 2 1755 1975 1542 1793 1529 1552 1334 1441 1394 1090 704 774 753
0 0 0 0 0 0 0 0 0 0 0 2 0 5 0 1 15 18 10 13 11 8 6 4 2 4 2 0 0 0 0 0 0 709 1707 1494 1716 1868 1631 1492 1163 1050 752 675
0 0 0 0 0 0 0 0 0 0 0 4 0 0 0 19 30 26 7 18 13 12 12 10 5 2 2 0 0 0 0 0 0 0 0 1003 1809 1776 1311 1546 1280 1181 1021 624
0 0 0 0 0 0 0 0 0 0 2 0 3 1 20 45 45 40 12 10 22 15 19 18 12 7 4 1 1 0 0 0 0 0 0 0 0 230 1331 1414 1465 1093 913 768
1 0 0 0 0 0 0 0 0 2 1 2 4 3 7 40 17 29 28 2 15 13 19 28 20 11 4 5 1 0 0 0 0 0 1 0 0 0 0 902 1278 1386 917 869
1 0 0 0 0 0 0 0 0 9 1 8 5 12 10 2 7 8 21 6 8 14 19 18 25 14 14 10 7 2 1 0 0 1 1 1 2 1 3 0 284 900 1107 801
0 14 0 0 0 0 0 0 44 4 21 7 6 4 10 5 11 8 6 10 4 16 11 18 16 13 8 6 7 5 3 1 1 1 3 3 4 2 3 6 1 183 409 499
0 3 0 0 0 4 3 15 31 88 34 47 25 10 46 21 16 8 7 8 8 8 10 8 19 10 5 4 5 7 4 3 4 5 5 3 4 2 2 3 3 3 209 126
0 24 2 0 0 0 0 9 29 21 11 32 3 13 25 39 22 10 11 10 10 6 13 10 11 7 7 6 5 7 6 5 5 6 6 6 4 2 1 1 1 2 1 121
1 11 16 0 0 0 1 9 19 30 42 32 3 15 31 10 13 11 9 8 8 11 7 9 5 8 12 9 6 4 8 8 9 9 7 6 5 6 5 3 3 1 1 1
1 23 6 2 10 31 8 7 8 28 6 3 5 3 6 9 8 8 7 7 8 9 8 9 8 7 5 7 5 4 4 8 5 3 6 6 8 7 6 4 4 4 2 0
0 12 24 14 5 0 9 6 5 1 1 0 5 2 7 9 13 10 12 10 4 5 5 9 5 6 4 2 4 1 3 3 2 4 5 5 6 8 6 7 6 5 4 3
8 1 8 1 17 16 1 3 0 8 3 4 2 3 10 12 10 7 8 4 3 3 3 4 6 6 10 4 3 3 6 5 2 2 6 5 2 2 4 4 5 5 4 4
1 0 6 4 7 1 1 3 5 3 2 3 0 7 7 5 6 6 7 5 5 3 4 6 8 7 10 12 3 4 3 3 4 4 3 5 5 4 4 3 5 4 7 4
2 0 7 13 4 0 5 4 4 1 5 8 3 4 2 2 6 9 8 5 5 4 4 5 8 5 8 11 9 2 1 3 7 5 4 3 5 4 3 4 4 3 5 9
1 7 6 19 2 6 5 2 2 7 5 5 6 9 3 3 0 3 5 4 5 5 4 4 5 6 5 9 16 9 3 2 3 3 8 6 4 4 4 5 9 7 4 4
3 0 3 12 8 2 2 3 2 2 1 3 0 2 0 9 0 3 4 2 2 3 2 2 2 2 3 4 10 12 7 2 4 4 5 3 10 5 6 8 8 10 11 10
0 1 2 2 4 2 2 9 11 4 3 2 0 0 0 1 3 3 2 1 1 0 1 0 0 1 2 3 3 5 10 14 3 4 2 6 6 6 5 11 11 10 11 10
0 2 2 2 3 1 4 11 1 4 8 2 3 1 0 3 3 2 1 1 1 0 0 0 0 0 0 1 1 3 8 8 3 0 1 3 5 9 12 5 9 10 5 5
1 0 1 2 4 8 22 5 4 10 5 5 1 0 0 0 1 1 2 2 1 0 0 0 0 0 0 0 2 3 5 2 2 4 0 0 1 3 6 12 14 7 7 6
5 5 2 5 11 7 3 7 0 0 1 1 0 0 0 1 2 3 3 2 0 0 0 0 0 0 0 0 0 1 4 4 3 3 3 0 0 1 2 4 3 6 17 7
3 6 2 4 6 2 3 2 0 0 0 0 0 0 0 0 1 1 0 0 0 0 0 0 0 0 0 0 0 0 1 4 4 4 4 3 1 0 0 1 6 8 17 18
4 4 5 2 0 0 3 3 0 0 0 0 0 0 0 0 0 0 2 2 0 0 0 0 0 0 0 0 0 0 0 3 3 2 3 5 7 4 0 0 0 0 1 3

GFSCGP_con_sbcape_120.txt.gz
CAPE
0 0 0 0 0 0 0 0 0 0 0 0 0 0 0 0 0 4 1 0 0 0 0 0 0 0 0 0 0 0 0 1046 2264 1792 1524 1403 1505 1408 1428 1546 1618 1738 1376 1499
0 0 0 0 0 0 0 0 0 0 0 0 0 0 0 0 2 25 7 5 0 0 0 0 0 0 7 0 0 0 0 127 2119 2095 1777 1435 1544 1294 1253 1356 1564 1777 1327 1471
0 0 0 0 0 0 0 0 0 0 0 0 0 0 0 2 0 0 8 14 18 12 8 7 37 28 16 0 0 0 181 304 1862 1964 2149 1698 1602 1425 1290 1366 1580 1821 1668 1264
0 0 0 0 0 0 0 0 0 0 0 0 0 0 9 1 3 0 5 8 21 20 27 5 10 10 10 7 5 4 15 791 2055 1972 2078 1666 1857 1694 1825 1622 1456 1363 1468 1634
0 0 0 0 0 0 0 0 0 0 0 5 0 2 10 0 1 4 15 19 23 24 26 17 10 9 8 3 1 2 2 0 0 1989 2032 1673 2142 2156 2221 2050 1753 1483 1414 1747
0 0 0 0 0 0 0 0 1 2 0 17 0 4 9 16 26 19 37 21 21 17 23 19 18 13 9 7 1 0 2 0 1 2 445 1745 1416 2230 2491 2092 2138 1675 1518 1315
0 0 0 0 0 0 0 25 79 90 186 80 12 7 18 26 36 41 34 34 24 18 18 18 17 21 29 23 7 1 1 1 3 10 3 2 1 499 2511 2298 2185 1692 1566 1138
0 0 0 0 0 0 2 20 49 27 120 86 2 15 18 4 16 20 16 23 22 10 19 13 2 20 17 28 10 5 2 1 1 6 4 4 4 1 1 7 373 2057 1676 1511
0 0 0 0 0 0 6 30 24 26 31 31 32 13 17 0 10 11 14 10 20 11 13 11 11 23 31 44 11 9 8 4 2 3 2 1 3 2 3 2 1 0 1689 1475
2 8 0 0 0 2 21 7 40 89 55 102 53 10 23 15 15 27 12 19 16 13 9 10 15 17 26 31 12 6 5 9 5 3 4 4 3 3 3 3 4 2 2 556
1 17 0 0 4 11 23 39 39 38 48 74 78 22 55 33 21 16 14 15 19 16 7 11 10 19 9 11 19 5 6 5 7 6 7 4 4 3 3 3 3 4 2 3
5 20 6 0 2 0 0 25 29 70 36 87 67 25 46 20 22 19 18 16 19 18 14 8 10 10 7 7 6 7 9 7 6 8 7 8 7 5 4 5 4 3 3 1
21 18 8 15 24 1 0 2 9 13 58 42 80 24 21 13 14 19 14 16 20 15 18 11 10 7 6 7 9 11 11 18 13 6 6 7 7 6 6 5 5 3 2 1
6 12 17 22 9 13 13 10 7 25 90 12 13 9 10 13 10 11 12 14 17 16 15 20 19 15 10 8 10 10 9 8 10 7 8 9 9 11 8 7 6 8 6 3
13 5 17 14 14 24 10 8 22 6 13 17 13 5 13 14 11 15 18 15 9 5 5 8 16 17 20 10 7 8 10 5 9 7 8 14 9 7 6 8 7 7 7 6
12 20 47 16 31 52 2 5 7 16 15 9 6 9 14 13 11 10 10 6 4 3 5 6 6 7 12 11 8 5 7 10 6 6 7 5 7 3 6 7 7 6 7 7
9 8 9 20 23 13 12 4 9 14 5 17 10 10 11 12 7 8 6 4 3 6 7 12 14 13 12 18 14 12 11 9 9 8 6 4 4 5 7 5 6 5 7 6
6 3 3 36 30 45 20 7 1 2 4 7 7 7 5 5 8 11 11 8 8 8 8 10 13 13 12 15 12 10 7 7 12 12 10 9 5 5 5 7 11 11 8 8
2 2 15 34 66 13 12 6 9 9 5 4 8 7 6 7 5 6 9 8 7 7 6 6 6 8 12 14 10 8 11 8 9 15 11 11 12 11 11 9 12 15 12 18
8 21 27 33 50 30 7 5 7 8 9 5 4 5 10 8 9 9 8 9 5 3 1 1 1 1 2 4 6 8 18 16 15 19 18 12 13 13 12 16 11 17 16 14
38 13 19 37 45 5 5 12 25 10 9 6 4 2 2 1 8 4 6 7 3 0 0 0 0 0 1 1 2 7 8 16 15 9 13 15 15 18 18 16 20 19 20 20
6 10 13 18 33 11 6 21 17 9 9 7 6 4 4 7 5 5 6 6 2 0 0 0 0 0 1 0 1 3 5 3 3 4 2 4 8 25 30 25 30 29 25 23
27 9 4 7 13 18 30 16 25 7 9 7 7 5 7 7 5 4 6 6 1 0 0 0 0 0 0 0 0 1 4 3 2 2 1 1 0 1 3 10 17 11 27 23
7 6 10 12 18 17 9 11 13 9 8 6 4 5 5 6 5 4 3 1 0 0 0 0 0 0 0 0 0 0 1 0 0 0 0 0 0 0 0 0 2 7 12 11
6 10 5 13 12 11 12 11 7 5 1 0 0 1 1 1 0 0 0 0 0 0 0 0 0 0 0 0 0 1 1 0 0 0 0 0 0 0 0 0 2 4 11 10
5 2 17 27 6 18 10 11 7 2 1 0 0 0 0 0 0 0 0 0 0 0 0 0 0 0 0 0 0 1 2 2 1 0 0 2 5 3 0 0 0 0 0 0

GFSCGP_con_sbcape_123.txt.gz
CAPE
0 0 0 0 0 0 0 0 0 0 0 0 0 0 0 0 14 0 0 0 0 0 0 0 0 0 0 0 0 0 0 0 0 2120 2337 2295 2085 1996 2020 1721 2231 2087 1887 1849
0 0 0 0 0 0 0 0 0 0 0 0 0 0 0 0 0 0 0 0 0 3 4 4 2 4 35 14 31 49 0 0 0 14 2295 2172 1964 1944 1978 1761 2170 2533 1944 1742
0 0 0 0 0 0 0 0 0 0 0 0 1 0 36 24 0 0 0 0 1 5 12 20 16 7 12 5 1 6 5 20 0 26 1980 1811 2222 1949 1800 1681 1999 2507 2123 1579
0 0 0 0 0 0 0 0 0 0 0 0 0 24 153 0 0 0 0 1 5 9 13 11 16 17 11 10 10 0 2 2 0 37 531 1715 1909 1746 1468 1714 1794 2261 2488 1670
0 0 0 0 0 0 0 0 0 0 2 28 29 160 218 0 0 0 4 10 8 9 14 9 9 10 20 16 6 6 4 14 9 13 161 2041 1637 2148 1894 1978 2013 2301 2482 2087
0 0 0 0 0 0 0 0 0 46 102 106 145 111 130 2 8 13 13 11 13 21 22 21 8 8 20 21 14 3 3 4 2 7 632 2344 1681 2162 1562 2032 2406 2201 1976 1898
0 0 0 0 0 1 0 10 34 89 130 139 34 86 2 3 4 5 15 18 13 21 24 24 11 11 10 17 18 16 9 7 2 5 4 0 1332 1433 2157 1232 1898 1901 1454 1467
0 0 0 0 0 0 0 16 76 22 102 77 47 148 9 1 5 7 7 20 14 21 25 18 15 15 11 21 16 36 21 11 3 10 6 6 6 1 2 0 1 1059 1430 1404
0 0 0 0 0 0 18 22 69 140 77 290 175 8 5 0 7 7 7 13 17 22 26 17 11 13 11 3 1 24 21 13 9 9 8 9 9 10 3 5 2 8 5 264
0 0 0 0 0 0 4 26 35 113 115 148 134 4 15 11 15 23 22 17 25 14 18 15 10 14 10 0 7 35 35 14 19 19 18 23 12 13 10 3 3 7 3 2
1 3 1 0 7 10 44 46 41 60 62 119 151 13 19 21 19 18 27 29 26 25 21 11 7 10 8 15 0 18 26 16 9 10 18 19 29 19 6 6 6 5 5 3
7 13 1 4 6 0 0 15 16 59 30 29 446 15 19 11 10 14 18 25 21 21 18 12 10 8 7 7 8 33 10 11 9 7 9 12 7 6 8 9 6 10 9 7
5 15 10 32 14 10 3 0 1 12 18 25 50 16 5 6 6 13 16 18 22 20 13 14 10 7 6 16 5 2 4 4 4 7 9 10 9 9 5 6 4 3 3 6
6 13 8 40 7 0 0 3 4 14 36 107 9 8 9 10 11 5 10 15 21 22 18 15 15 13 11 6 8 13 13 10 5 6 10 10 8 7 7 7 6 5 4 4
18 11 8 12 8 5 4 2 7 1 7 12 8 6 8 10 11 16 13 4 2 3 5 12 18 17 17 18 15 15 11 13 10 8 13 18 16 10 9 8 7 5 5 6
19 26 54 9 12 9 13 3 7 12 10 8 2 6 6 6 6 8 8 4 3 3 3 6 6 4 13 15 15 14 16 16 14 9 9 13 10 8 8 7 11 10 8 7
29 17 17 20 19 16 51 4 4 4 4 13 13 6 6 4 5 9 8 7 6 6 5 10 13 15 14 18 15 20 13 10 16 15 11 9 12 11 14 11 11 7 7 8
6 8 8 21 31 21 7 5 6 4 3 3 2 4 2 1 5 6 7 7 6 6 5 5 16 10 13 14 14 17 10 8 14 13 14 12 12 9 11 10 15 15 13 12
15 10 20 46 47 9 14 3 2 5 3 4 2 6 4 3 5 7 5 6 5 4 2 2 2 11 15 15 12 11 14 11 10 15 14 13 9 8 9 14 15 15 14 14
18 15 35 43 33 55 16 1 5 1 11 2 5 2 6 6 11 7 5 5 4 1 0 0 0 0 0 2 4 5 12 9 9 20 13 9 19 14 14 22 17 18 19 15
37 35 54 58 52 8 3 0 6 12 10 3 1 5 10 8 5 3 3 4 1 0 0 0 0 0 0 0 0 2 2 4 12 8 6 7 6 11 15 22 31 26 30 25
33 53 49 44 43 46 4 27 17 6 7 4 3 4 3 5 6 5 3 3 0 0 0 0 0 0 0 0 0 0 0 0 0 1 1 1 5 14 20 22 26 20 21 19
33 25 46 6 14 5 9 32 16 4 9 6 4 6 4 6 4 2 5 3 0 0 0 0 0 0 0 0 0 0 0 0 0 0 0 0 0 0 0 6 18 10 22 24
7 5 5 8 2 4 19 41 31 17 8 2 3 5 4 6 6 6 3 0 0 0 0 0 0 0 0 0 0 0 0 0 0 0 0 0 0 0 0 0 0 0 3 6
12 8 4 14 16 18 23 30 23 11 1 1 3 2 2 0 0 0 0 0 0 0 0 0 0 0 0 0 0 0 0 0 0 0 0 0 1 1 0 0 0 2 3 0
3 12 22 102 3 17 11 26 25 13 2 1 0 0 0 0 0 0 0 0 0 0 0 0 0 0 0 0 0 0 0 0 0 0 0 2 3 3 2 2 2 0 0 0

GFSCGP_con_sbcape_126.txt.gz
CAPE
0 0 0 0 0 0 0 0 0 0 0 0 0 0 0 0 0 0 0 0 0 0 0 0 0 0 0 0 0 0 0 0 0 0 314 1401 1447 1107 1522 1578 1932 1947 1903 1981
0 0 0 0 0 0 0 0 0 0 0 0 0 0 0 0 0 0 0 0 0 0 0 0 0 0 1 1 0 0 0 0 0 0 0 313 986 1101 1175 1502 1569 1948 1813 1859
0 0 0 0 0 0 0 0 0 0 0 0 0 0 0 5 0 0 0 0 0 0 0 0 2 4 7 3 2 7 0 0 0 0 0 0 0 894 855 1265 1327 2220 1985 1873
0 0 0 0 0 0 0 0 0 0 0 0 0 0 0 33 0 0 0 0 0 0 0 2 8 4 2 3 3 7 10 0 0 1 0 0 1 5 707 1140 1243 2082 1969 1820
0 0 0 0 0 0 0 0 0 0 0 0 0 55 0 0 0 0 0 1 0 0 4 9 8 4 8 2 6 9 11 5 1 0 3 6 5 1 70 1061 1157 1571 1899 1610
0 0 0 0 0 0 0 0 0 0 0 12 23 20 1 0 0 0 1 1 0 5 8 5 13 14 12 15 13 8 8 7 0 6 7 21 15 6 0 961 826 1294 1810 1414
0 0 0 0 0 0 0 0 3 0 12 20 50 66 0 0 0 3 7 3 4 10 10 16 17 24 23 18 9 10 7 7 5 1 10 15 20 22 213 703 959 1094 1514 1541
0 0 0 0 0 0 0 1 1 0 5 2 15 16 0 0 0 1 1 6 4 8 14 18 15 19 15 13 7 5 4 5 6 4 11 1 0 4 8 0 15 512 918 1188
0 0 0 0 0 0 1 0 14 24 8 17 30 1 0 0 0 2 4 4 11 12 14 11 14 14 10 3 0 1 3 8 15 11 11 6 3 1 4 2 0 5 1 0
0 0 0 0 0 0 0 0 11 57 23 3 12 7 2 1 5 11 8 11 12 11 8 11 12 9 6 1 0 1 3 11 16 13 17 7 6 8 6 1 2 3 4 0
0 0 0 0 0 0 0 9 23 28 35 30 40 2 4 7 6 6 5 14 15 10 5 13 12 6 3 0 0 0 1 5 11 23 12 5 7 8 4 4 4 4 3 2
0 4 0 0 1 0 0 1 0 6 2 8 10 3 6 3 3 2 1 12 14 11 8 10 13 7 3 1 0 0 0 4 3 21 6 8 8 12 7 3 8 5 3 3
1 0 4 3 6 0 0 0 0 0 0 4 11 1 2 1 2 2 5 5 9 9 7 8 8 6 5 3 1 0 0 11 11 17 8 2 3 6 5 5 3 2 2 3
0 6 5 11 14 1 0 0 0 1 15 13 23 4 1 0 2 1 1 5 2 5 8 8 6 4 7 4 5 1 3 4 8 6 4 1 2 3 4 4 4 4 4 3
2 15 2 8 5 4 2 0 0 0 3 17 2 1 0 0 4 1 4 2 0 1 2 5 5 5 5 6 2 1 6 5 3 4 5 6 2 5 3 3 1 3 1 2
0 27 0 2 0 1 17 0 0 5 0 1 0 2 0 0 1 3 2 0 0 1 1 1 2 5 8 9 7 6 9 7 5 5 7 8 5 6 6 5 5 4 4 2
49 19 26 8 29 5 15 0 0 0 1 1 11 0 2 1 3 3 3 2 1 1 1 0 0 7 7 7 3 6 9 10 5 5 5 6 7 9 8 8 6 6 4 4
29 15 14 24 60 25 0 0 0 1 2 0 0 0 0 1 3 2 2 2 2 1 0 2 3 1 2 2 5 0 1 4 5 3 6 5 6 2 0 1 5 3 1 5
0 20 24 27 36 0 0 0 1 1 0 0 0 1 0 1 0 2 2 1 1 0 1 0 0 0 4 0 0 0 0 0 0 0 0 4 6 8 12 8 6 6 6 7
0 60 54 45 29 8 4 0 0 0 8 0 1 0 0 0 2 4 2 0 0 0 0 0 0 0 0 0 0 0 0 0 0 0 0 0 0 0 0 4 6 10 9 8
30 35 30 53 22 1 0 0 0 7 4 3 3 3 1 0 0 0 2 0 0 0 0 0 0 0 0 0 0 0 0 0 0 0 0 0 0 0 0 0 0 0 5 0
5 20 38 41 37 34 1 3 13 3 3 2 0 0 0 0 1 1 0 0 0 0 0 0 0 0 0 0 0 0 0 0 0 0 0 0 0 0 0 0 0 0 0 0
5 5 11 2 6 1 3 12 8 1 9 3 0 0 0 1 2 3 1 0 0 0 0 0 0 0 0 0 0 0 0 0 0 0 0 0 0 0 0 0 0 0 0 0
0 0 1 0 3 5 34 21 18 12 14 4 1 0 0 1 1 0 0 0 0 0 0 0 0 0 0 0 0 0 0 0 0 0 0 0 0 0 0 0 0 0 0 0
1 0 0 6 3 3 28 29 22 24 17 2 0 0 0 0 0 0 0 0 0 0 0 0 0 0 0 0 0 0 0 0 0 0 0 0 0 0 0 0 0 0 0 0
3 6 11 54 0 6 11 24 12 11 8 1 0 0 0 0 0 0 0 0 0 0 0 0 0 0 0 0 0 0 0 0 0 0 0 0 2 1 0 0 0 0 0 0

GFSCGP_con_sbcape_129.txt.gz
CAPE
0 0 0 0 0 0 0 0 0 0 0 0 0 0 0 0 0 0 0 0 0 0 0 0 0 0 0 0 0 0 0 0 0 0 0 0 0 4 772 881 1068 1090 1842 2048
0 0 0 0 0 0 0 0 0 0 0 0 0 0 0 0 0 0 0 0 0 0 0 0 0 0 0 0 0 0 0 0 0 0 0 0 0 0 0 174 823 1102 1170 1844
0 0 0 0 0 0 0 0 0 0 0 0 0 0 0 0 0 0 0 0 0 0 0 0 0 0 0 0 0 0 1 3 1 0 0 0 0 0 0 0 232 776 1186 1526
0 0 0 0 0 0 0 0 0 0 0 0 0 0 0 0 0 0 0 0 0 0 0 0 0 0 0 0 0 0 1 2 2 1 2 2 2 3 0 0 0 59 831 1338
0 0 0 0 0 0 0 0 0 0 0 0 0 0 0 0 0 0 0 0 0 0 0 0 0 0 0 0 1 3 1 1 3 5 2 6 0 3 0 0 0 0 152 1152
0 0 0 0 0 0 0 0 0 0 0 0 0 0 0 0 0 0 0 0 0 0 0 1 0 0 0 0 1 4 0 6 2 3 6 14 7 2 0 0 0 0 1 520
0 0 0 0 0 0 0 0 0 0 0 0 0 0 0 0 0 0 0 0 0 2 3 1 1 1 3 2 6 8 7 6 5 7 8 8 5 18 11 0 0 7 0 0
0 0 0 0 0 0 0 0 0 0 0 0 0 0 0 0 0 0 0 3 3 3 0 0 0 1 3 6 3 5 4 5 9 12 6 6 12 1 11 2 12 0 0 0
0 0 0 0 0 0 0 0 0 7 0 0 0 0 8 0 0 0 0 0 3 5 1 0 0 0 4 2 0 2 5 5 5 11 10 6 6 4 4 0 0 0 0 0
0 0 0 0 0 0 0 0 0 0 0 2 0 0 0 0 1 0 1 2 5 4 0 0 0 1 2 0 0 0 2 4 3 5 9 13 9 5 4 2 1 2 1 0
0 0 0 0 0 0 0 0 9 13 17 10 10 0 3 0 0 0 0 0 7 0 0 0 0 0 2 0 0 0 0 0 0 2 6 9 13 5 4 5 2 3 2 0
0 1 0 0 0 0 0 0 1 0 0 0 0 0 1 0 0 0 1 2 1 0 0 0 1 1 0 2 0 0 0 0 0 0 0 7 9 14 7 4 4 5 7 4
3 0 0 1 2 0 1 0 0 0 0 0 0 0 0 0 0 0 1 0 0 0 0 0 0 0 0 2 0 1 1 0 0 1 0 5 10 7 11 2 1 3 4 4
21 15 4 2 1 3 13 1 0 0 0 0 0 0 2 0 0 0 1 0 0 0 0 0 0 0 1 2 1 1 2 0 0 1 4 7 5 9 10 4 0 1 1 1
1 5 6 0 0 0 0 0 0 0 0 4 0 0 0 0 0 1 2 0 0 0 0 0 0 0 0 0 0 0 0 1 1 2 3 5 5 6 2 1 2 2 0 0
0 13 0 0 0 0 0 0 0 0 0 0 0 0 0 0 0 0 0 0 0 0 0 0 0 0 0 0 0 0 0 0 1 1 3 4 4 4 3 0 1 2 2 2
0 3 6 0 0 0 0 0 0 0 0 0 0 0 0 1 0 0 0 0 0 0 0 0 0 0 0 0 0 0 0 0 0 0 0 4 4 6 5 3 3 4 2 4
23 30 16 1 0 1 0 0 0 0 0 0 0 0 0 0 0 0 0 0 0 0 0 0 0 0 0 0 0 0 0 0 0 0 0 0 2 3 4 5 3 3 6 4
0 33 6 0 0 0 0 0 0 1 0 0 0 0 0 0 0 1 0 0 0 0 0 0 0 0 0 0 0 0 0 0 0 0 0 0 0 0 0 2 5 1 4 7
0 19 0 1 16 3 0 0 0 0 0 0 0 0 0 0 4 1 0 0 0 0 0 0 0 0 0 0 0 0 0 0 0 0 0 0 0 0 0 0 0 0 0 0
0 0 1 1 7 0 0 0 0 0 0 0 0 0 0 0 0 0 0 0 0 0 0 0 0 0 0 0 0 0 0 0 0 0 0 0 0 0 0 0 0 0 0 0
0 4 6 0 1 1 0 0 0 0 0 0 0 0 0 0 0 0 0 0 0 0 0 0 0 0 0 0 0 0 0 0 0 0 0 0 0 0 0 0 0 0 0 0
1 0 0 0 0 0 3 0 0 0 0 0 0 3 2 2 0 0 0 0 0 0 0 0 0 0 0 0 0 0 0 0 0 0 0 0 0 0 0 0 0 0 0 0
0 0 0 0 1 1 13 4 1 0 2 1 1 3 2 0 0 0 0 0 0 0 0 0 0 0 0 0 0 0 0 0 0 0 0 0 0 0 0 0 0 0 0 0
0 0 0 1 3 5 17 12 7 12 20 11 8 1 0 0 0 0 0 0 0 0 0 0 0 0 0 0 0 0 0 0 0 0 0 0 0 0 0 0 0 0 0 0
0 0 0 0 0 0 0 1 2 1 2 2 4 1 0 0 0 0 0 0 0 0 0 0 0 0 0 0 0 0 0 0 0 0 0 0 0 0 0 0 0 0 0 0